| time (UTC) | temp C | wind direction | speed KPH | gust KPH | rain 1hr cm | rain 24hr cm | rain mn cm | humidity % | barometer mb |
| 20260504232156 | 10 | 110 | 0.0 | 1.6 | 0.00 | 0.15 | 0.00 | 90 | 1009.3 |
| 20260504232056 | 10 | 110 | 0.0 | 3.2 | 0.00 | 0.15 | 0.00 | 90 | 1009.3 |
| 20260504232002 | 10 | 110 | 0.0 | 3.2 | 0.00 | 0.15 | 0.00 | 90 | 1009.3 |
| 20260504231953 | 10 | 111 | 0.0 | 3.2 | 0.00 | 0.15 | 0.00 | 90 | 1009.3 |
| 20260504231854 | 10 | 111 | 0.0 | 3.2 | 0.00 | 0.15 | 0.00 | 90 | 1009.4 |
| 20260504231754 | 10 | 111 | 0.0 | 3.2 | 0.00 | 0.15 | 0.00 | 90 | 1009.4 |
| 20260504231725 | 10 | 108 | 0.0 | 3.2 | 0.00 | 0.15 | 0.00 | 89 | 1009.4 |
| 20260504231721 | 10 | 108 | 0.0 | 3.2 | 0.00 | 0.15 | 0.00 | 90 | 1009.4 |
| 20260504231713 | 10 | 108 | 0.0 | 3.2 | 0.00 | 0.15 | 0.00 | 90 | 1009.4 |
| 20260504231450 | 10 | 108 | 0.0 | 3.2 | 0.00 | 0.15 | 0.00 | 89 | 1009.4 |
| 20260504231349 | 10 | 109 | 0.0 | 3.2 | 0.00 | 0.15 | 0.00 | 89 | 1009.4 |
| 20260504231250 | 10 | 108 | 0.0 | 3.2 | 0.00 | 0.15 | 0.00 | 89 | 1009.5 |
| 20260504231150 | 10 | 109 | 0.0 | 3.2 | 0.00 | 0.15 | 0.00 | 89 | 1009.4 |
| 20260504231049 | 10 | 109 | 0.0 | 3.2 | 0.00 | 0.15 | 0.00 | 89 | 1009.5 |
| 20260504231001 | 10 | 109 | 0.0 | 3.2 | 0.00 | 0.15 | 0.00 | 89 | 1009.5 |
| 20260504230948 | 10 | 109 | 0.0 | 3.2 | 0.00 | 0.15 | 0.00 | 89 | 1009.5 |
| 20260504230846 | 10 | 109 | 0.0 | 3.2 | 0.00 | 0.15 | 0.00 | 89 | 1009.5 |
| 20260504230746 | 10 | 107 | 0.0 | 3.2 | 0.00 | 0.15 | 0.00 | 89 | 1009.5 |
| 20260504230644 | 10 | 107 | 0.0 | 3.2 | 0.00 | 0.15 | 0.00 | 89 | 1009.5 |
| 20260504230542 | 10 | 101 | 0.0 | 3.2 | 0.00 | 0.15 | 0.00 | 89 | 1009.4 |
| 20260504230502 | 10 | 101 | 0.0 | 3.2 | 0.00 | 0.15 | 0.00 | 89 | 1009.4 |
| 20260504230440 | 10 | 103 | 0.0 | 3.2 | 0.00 | 0.15 | 0.00 | 89 | 1009.5 |
| 20260504230340 | 10 | 105 | 0.0 | 3.2 | 0.00 | 0.15 | 0.00 | 89 | 1009.5 |
| 20260504230240 | 10 | 105 | 0.0 | 3.2 | 0.00 | 0.15 | 0.00 | 89 | 1009.5 |
| 20260504230222 | 10 | 105 | 0.0 | 3.2 | 0.00 | 0.15 | 0.00 | 89 | 1009.5 |
| 20260504230214 | 10 | 105 | 1.6 | 3.2 | 0.00 | 0.15 | 0.00 | 89 | 1009.5 |
| 20260504225936 | 10 | 105 | 1.6 | 3.2 | 0.00 | 0.15 | 0.00 | 89 | 1009.4 |
| 20260504225834 | 10 | 105 | 1.6 | 4.8 | 0.00 | 0.15 | 0.00 | 89 | 1009.5 |
| 20260504225732 | 10 | 105 | 1.6 | 4.8 | 0.00 | 0.15 | 0.00 | 88 | 1009.4 |
| 20260504225632 | 10 | 96 | 1.6 | 4.8 | 0.00 | 0.15 | 0.00 | 88 | 1009.5 |
| 20260504225502 | 10 | 97 | 1.6 | 4.8 | 0.00 | 0.15 | 0.00 | 88 | 1009.5 |
| 20260504225430 | 10 | 97 | 1.6 | 4.8 | 0.00 | 0.15 | 0.00 | 88 | 1009.5 |
| 20260504225330 | 11 | 97 | 1.6 | 4.8 | 0.00 | 0.15 | 0.00 | 88 | 1009.5 |
| 20260504225230 | 11 | 97 | 1.6 | 4.8 | 0.00 | 0.15 | 0.00 | 88 | 1009.5 |
| 20260504225130 | 11 | 97 | 1.6 | 4.8 | 0.00 | 0.15 | 0.00 | 88 | 1009.5 |
| 20260504225001 | 11 | 97 | 1.6 | 4.8 | 0.00 | 0.15 | 0.00 | 87 | 1009.5 |
| 20260504224930 | 11 | 97 | 1.6 | 4.8 | 0.00 | 0.15 | 0.00 | 87 | 1009.5 |
| 20260504224830 | 11 | 104 | 1.6 | 3.2 | 0.00 | 0.15 | 0.00 | 87 | 1009.5 |
| 20260504224727 | 11 | 100 | 1.6 | 4.8 | 0.00 | 0.15 | 0.00 | 88 | 1009.5 |
| 20260504224628 | 11 | 94 | 1.6 | 6.4 | 0.00 | 0.15 | 0.00 | 88 | 1009.5 |
| 20260504224502 | 11 | 103 | 1.6 | 11.3 | 0.00 | 0.15 | 0.00 | 88 | 1009.5 |
| 20260504224428 | 11 | 103 | 1.6 | 11.3 | 0.00 | 0.15 | 0.00 | 88 | 1009.5 |
| 20260504224328 | 11 | 103 | 3.2 | 11.3 | 0.00 | 0.15 | 0.00 | 88 | 1009.5 |
| 20260504224224 | 11 | 103 | 3.2 | 11.3 | 0.00 | 0.15 | 0.00 | 88 | 1009.5 |
| 20260504224124 | 11 | 103 | 3.2 | 11.3 | 0.00 | 0.15 | 0.00 | 88 | 1009.5 |
| 20260504224001 | 11 | 103 | 1.6 | 11.3 | 0.00 | 0.15 | 0.00 | 87 | 1009.5 |
| 20260504223924 | 11 | 103 | 1.6 | 11.3 | 0.00 | 0.15 | 0.00 | 87 | 1009.5 |
| 20260504223822 | 11 | 103 | 1.6 | 11.3 | 0.00 | 0.15 | 0.00 | 87 | 1009.5 |
| 20260504223718 | 11 | 125 | 1.6 | 11.3 | 0.00 | 0.15 | 0.00 | 88 | 1009.5 |
| 20260504223618 | 11 | 126 | 1.6 | 11.3 | 0.00 | 0.15 | 0.00 | 88 | 1009.5 |
| 20260504223518 | 11 | 96 | 0.0 | 4.8 | 0.00 | 0.15 | 0.00 | 88 | 1009.5 |
| 20260504223458 | 11 | 72 | 0.0 | 4.8 | 0.00 | 0.15 | 0.00 | 88 | 1009.5 |
| 20260504223418 | 11 | 71 | 0.0 | 4.8 | 0.00 | 0.15 | 0.00 | 88 | 1009.5 |
| 20260504223316 | 11 | 318 | 0.0 | 0.0 | 0.00 | 0.15 | 0.00 | 88 | 1009.5 |
| 20260504223222 | 11 | 317 | 0.0 | 3.2 | 0.00 | 0.15 | 0.00 | 88 | 1009.4 |
| 20260504223216 | 11 | 317 | 0.0 | 3.2 | 0.00 | 0.15 | 0.00 | 88 | 1009.5 |
| 20260504223212 | 11 | 317 | 0.0 | 3.2 | 0.00 | 0.15 | 0.00 | 88 | 1009.5 |
| 20260504223203 | 11 | 317 | 0.0 | 3.2 | 0.00 | 0.15 | 0.00 | 88 | 1009.4 |
| 20260504222911 | 11 | 317 | 0.0 | 3.2 | 0.00 | 0.15 | 0.00 | 88 | 1009.4 |
| 20260504222809 | 11 | 317 | 1.6 | 3.2 | 0.00 | 0.15 | 0.00 | 88 | 1009.5 |
| 20260504222710 | 11 | 317 | 1.6 | 3.2 | 0.00 | 0.15 | 0.00 | 88 | 1009.4 |
| 20260504222612 | 11 | 317 | 1.6 | 3.2 | 0.00 | 0.15 | 0.00 | 88 | 1009.4 |
| 20260504222508 | 11 | 317 | 1.6 | 3.2 | 0.00 | 0.15 | 0.00 | 88 | 1009.4 |
| 20260504222452 | 11 | 317 | 1.6 | 3.2 | 0.00 | 0.15 | 0.00 | 88 | 1009.5 |
| 20260504222406 | 11 | 317 | 1.6 | 3.2 | 0.00 | 0.15 | 0.00 | 88 | 1009.5 |
| 20260504222305 | 11 | 317 | 1.6 | 3.2 | 0.00 | 0.15 | 0.00 | 88 | 1009.5 |
| 20260504222204 | 11 | 317 | 1.6 | 3.2 | 0.00 | 0.15 | 0.00 | 88 | 1009.5 |
| 20260504222101 | 11 | 317 | 1.6 | 3.2 | 0.00 | 0.15 | 0.00 | 88 | 1009.4 |
| 20260504222001 | 11 | 317 | 1.6 | 3.2 | 0.00 | 0.15 | 0.00 | 88 | 1009.5 |
| 20260504221952 | 11 | 317 | 1.6 | 3.2 | 0.00 | 0.15 | 0.00 | 88 | 1009.5 |
| 20260504221901 | 11 | 317 | 1.6 | 3.2 | 0.00 | 0.15 | 0.00 | 88 | 1009.5 |
| 20260504221801 | 11 | 317 | 1.6 | 3.2 | 0.00 | 0.15 | 0.00 | 88 | 1009.5 |
| 20260504221701 | 11 | 317 | 1.6 | 3.2 | 0.00 | 0.15 | 0.00 | 88 | 1009.5 |
| 20260504221601 | 11 | 317 | 1.6 | 3.2 | 0.00 | 0.15 | 0.00 | 88 | 1009.5 |
| 20260504221501 | 11 | 317 | 1.6 | 3.2 | 0.00 | 0.15 | 0.00 | 88 | 1009.5 |
| 20260504221451 | 11 | 317 | 1.6 | 3.2 | 0.00 | 0.15 | 0.00 | 88 | 1009.5 |
| 20260504221405 | 12 | 317 | 1.6 | 3.2 | 0.00 | 0.15 | 0.00 | 88 | 1009.5 |
| 20260504221301 | 12 | 317 | 0.0 | 3.2 | 0.00 | 0.15 | 0.00 | 88 | 1009.5 |
| 20260504221201 | 12 | 317 | 0.0 | 3.2 | 0.00 | 0.15 | 0.00 | 88 | 1009.5 |
| 20260504221101 | 12 | 317 | 0.0 | 3.2 | 0.00 | 0.15 | 0.00 | 88 | 1009.5 |
| 20260504221001 | 12 | 317 | 0.0 | 3.2 | 0.00 | 0.15 | 0.00 | 88 | 1009.5 |
| 20260504220952 | 12 | 317 | 1.6 | 3.2 | 0.00 | 0.15 | 0.00 | 88 | 1009.5 |
| 20260504220901 | 12 | 317 | 1.6 | 3.2 | 0.00 | 0.15 | 0.00 | 88 | 1009.5 |
| 20260504220801 | 12 | 317 | 1.6 | 3.2 | 0.00 | 0.15 | 0.00 | 87 | 1009.6 |
| 20260504220701 | 12 | 317 | 1.6 | 3.2 | 0.00 | 0.15 | 0.00 | 87 | 1009.6 |
| 20260504220606 | 12 | 317 | 1.6 | 3.2 | 0.00 | 0.15 | 0.00 | 87 | 1009.6 |
| 20260504220501 | 12 | 317 | 1.6 | 3.2 | 0.00 | 0.15 | 0.00 | 87 | 1009.6 |
| 20260504220452 | 12 | 317 | 1.6 | 3.2 | 0.00 | 0.15 | 0.00 | 87 | 1009.5 |
| 20260504220401 | 12 | 317 | 1.6 | 3.2 | 0.00 | 0.15 | 0.00 | 87 | 1009.5 |
| 20260504220300 | 12 | 317 | 1.6 | 3.2 | 0.00 | 0.15 | 0.00 | 87 | 1009.6 |
| 20260504220200 | 12 | 317 | 1.6 | 3.2 | 0.00 | 0.15 | 0.00 | 87 | 1009.6 |
| 20260504220103 | 12 | 317 | 1.6 | 3.2 | 0.00 | 0.15 | 0.00 | 87 | 1009.6 |
| 20260504220001 | 12 | 317 | 0.0 | 3.2 | 0.00 | 0.15 | 0.00 | 88 | 1009.7 |
| 20260504215951 | 12 | 317 | 0.0 | 3.2 | 0.00 | 0.15 | 0.15 | 88 | 1009.6 |
| 20260504215901 | 12 | 317 | 0.0 | 3.2 | 0.00 | 0.15 | 0.15 | 88 | 1009.6 |
| 20260504215801 | 12 | 317 | 0.0 | 3.2 | 0.00 | 0.15 | 0.15 | 88 | 1009.7 |
| 20260504215701 | 12 | 317 | 0.0 | 3.2 | 0.00 | 0.15 | 0.15 | 88 | 1009.7 |
| 20260504215600 | 12 | 317 | 0.0 | 0.0 | 0.00 | 0.15 | 0.15 | 87 | 1009.7 |
| 20260504215500 | 12 | 317 | 0.0 | 1.6 | 0.00 | 0.15 | 0.15 | 87 | 1009.7 |
| 20260504215449 | 12 | 317 | 0.0 | 1.6 | 0.00 | 0.15 | 0.15 | 87 | 1009.7 |
| 20260504215400 | 12 | 317 | 0.0 | 1.6 | 0.00 | 0.15 | 0.15 | 87 | 1009.7 |
| 20260504215300 | 12 | 317 | 0.0 | 1.6 | 0.00 | 0.15 | 0.15 | 87 | 1009.7 |
| 20260504215201 | 12 | 317 | 0.0 | 3.2 | 0.00 | 0.15 | 0.15 | 87 | 1009.7 |
| 20260504215101 | 12 | 317 | 0.0 | 3.2 | 0.00 | 0.15 | 0.15 | 87 | 1009.7 |
| 20260504215002 | 12 | 317 | 0.0 | 3.2 | 0.00 | 0.15 | 0.15 | 87 | 1009.7 |
| 20260504214948 | 12 | 317 | 0.0 | 3.2 | 0.00 | 0.15 | 0.15 | 87 | 1009.8 |
| 20260504214901 | 12 | 317 | 0.0 | 3.2 | 0.00 | 0.15 | 0.15 | 87 | 1009.8 |
| 20260504214759 | 12 | 317 | 0.0 | 3.2 | 0.00 | 0.15 | 0.15 | 87 | 1009.8 |
| 20260504214717 | 12 | 317 | 0.0 | 3.2 | 0.00 | 0.15 | 0.15 | 87 | 1009.8 |
| 20260504214712 | 12 | 317 | 0.0 | 3.2 | 0.00 | 0.15 | 0.15 | 87 | 1009.8 |
| 20260504214708 | 12 | 317 | 0.0 | 3.2 | 0.00 | 0.15 | 0.15 | 87 | 1009.8 |
| 20260504214700 | 12 | 317 | 0.0 | 3.2 | 0.00 | 0.15 | 0.15 | 87 | 1009.9 |
| 20260504214358 | 12 | 317 | 0.0 | 3.2 | 0.00 | 0.15 | 0.15 | 87 | 1009.9 |
| 20260504214253 | 12 | 317 | 0.0 | 3.2 | 0.00 | 0.15 | 0.15 | 87 | 1009.9 |
| 20260504214153 | 12 | 317 | 0.0 | 1.6 | 0.00 | 0.15 | 0.15 | 87 | 1009.9 |
| 20260504214053 | 12 | 317 | 0.0 | 0.0 | 0.00 | 0.15 | 0.15 | 87 | 1009.9 |
| 20260504213946 | 12 | 317 | 0.0 | 0.0 | 0.00 | 0.15 | 0.15 | 87 | 1009.8 |
| 20260504213852 | 12 | 317 | 0.0 | 0.0 | 0.00 | 0.15 | 0.15 | 86 | 1009.9 |
| 20260504213747 | 12 | 317 | 0.0 | 0.0 | 0.00 | 0.15 | 0.15 | 87 | 1009.9 |
| 20260504213647 | 12 | 317 | 0.0 | 1.6 | 0.00 | 0.15 | 0.15 | 86 | 1009.9 |
| 20260504213547 | 12 | 317 | 0.0 | 3.2 | 0.00 | 0.15 | 0.15 | 86 | 1009.9 |
| 20260504213445 | 12 | 317 | 1.6 | 4.8 | 0.00 | 0.15 | 0.15 | 86 | 1009.9 |
| 20260504213347 | 12 | 317 | 1.6 | 4.8 | 0.00 | 0.15 | 0.15 | 86 | 1009.9 |
| 20260504213247 | 12 | 317 | 1.6 | 4.8 | 0.00 | 0.15 | 0.15 | 86 | 1009.9 |
| 20260504213145 | 12 | 317 | 1.6 | 4.8 | 0.00 | 0.15 | 0.15 | 86 | 1010.0 |
| 20260504213046 | 12 | 317 | 1.6 | 4.8 | 0.00 | 0.15 | 0.15 | 86 | 1010.0 |
| 20260504212942 | 12 | 317 | 1.6 | 4.8 | 0.00 | 0.15 | 0.15 | 86 | 1010.0 |
| 20260504212904 | 12 | 317 | 1.6 | 4.8 | 0.00 | 0.15 | 0.15 | 86 | 1010.0 |
| 20260504212741 | 12 | 317 | 1.6 | 4.8 | 0.00 | 0.15 | 0.15 | 86 | 1010.0 |
| 20260504212639 | 12 | 317 | 1.6 | 4.8 | 0.00 | 0.15 | 0.15 | 86 | 1010.0 |
| 20260504212539 | 12 | 317 | 1.6 | 4.8 | 0.00 | 0.15 | 0.15 | 86 | 1010.0 |
| 20260504212443 | 12 | 317 | 1.6 | 4.8 | 0.00 | 0.15 | 0.15 | 86 | 1010.0 |
| 20260504212437 | 12 | 318 | 1.6 | 4.8 | 0.00 | 0.15 | 0.15 | 86 | 1010.0 |
| 20260504212335 | 12 | 319 | 1.6 | 4.8 | 0.00 | 0.15 | 0.15 | 86 | 1010.0 |
| 20260504212229 | 12 | 319 | 1.6 | 4.8 | 0.00 | 0.15 | 0.15 | 86 | 1010.0 |
| 20260504212129 | 12 | 319 | 3.2 | 4.8 | 0.00 | 0.15 | 0.15 | 86 | 1010.0 |
| 20260504212029 | 12 | 319 | 3.2 | 4.8 | 0.00 | 0.15 | 0.15 | 86 | 1010.0 |
| 20260504211929 | 12 | 319 | 3.2 | 4.8 | 0.00 | 0.15 | 0.15 | 86 | 1010.0 |
| 20260504211829 | 12 | 319 | 1.6 | 4.8 | 0.00 | 0.15 | 0.15 | 85 | 1010.0 |
| 20260504211729 | 12 | 319 | 3.2 | 4.8 | 0.00 | 0.15 | 0.15 | 85 | 1010.0 |
| 20260504211629 | 12 | 319 | 3.2 | 4.8 | 0.00 | 0.15 | 0.15 | 85 | 1010.0 |
| 20260504211529 | 12 | 319 | 3.2 | 4.8 | 0.00 | 0.15 | 0.15 | 85 | 1009.9 |
| 20260504211429 | 12 | 319 | 3.2 | 4.8 | 0.00 | 0.15 | 0.15 | 85 | 1010.0 |
| 20260504211330 | 12 | 319 | 3.2 | 4.8 | 0.00 | 0.15 | 0.15 | 85 | 1010.0 |
| 20260504211229 | 12 | 319 | 1.6 | 4.8 | 0.00 | 0.15 | 0.15 | 85 | 1010.0 |
| 20260504211129 | 12 | 296 | 1.6 | 4.8 | 0.00 | 0.15 | 0.15 | 85 | 1010.0 |
| 20260504211029 | 12 | 294 | 1.6 | 4.8 | 0.00 | 0.15 | 0.15 | 85 | 1010.0 |
| 20260504210942 | 12 | 295 | 1.6 | 4.8 | 0.00 | 0.15 | 0.15 | 85 | 1010.0 |
| 20260504210929 | 12 | 290 | 1.6 | 4.8 | 0.00 | 0.15 | 0.15 | 85 | 1010.0 |
| 20260504210829 | 12 | 290 | 1.6 | 4.8 | 0.00 | 0.15 | 0.15 | 85 | 1010.0 |
| 20260504210729 | 12 | 290 | 1.6 | 4.8 | 0.00 | 0.15 | 0.15 | 85 | 1010.0 |
| 20260504210629 | 13 | 276 | 1.6 | 4.8 | 0.00 | 0.15 | 0.15 | 86 | 1010.0 |
| 20260504210529 | 13 | 267 | 0.0 | 4.8 | 0.00 | 0.15 | 0.15 | 86 | 1010.0 |
| 20260504210440 | 13 | 260 | 0.0 | 4.8 | 0.00 | 0.15 | 0.15 | 86 | 1010.0 |
| 20260504210429 | 13 | 223 | 0.0 | 3.2 | 0.00 | 0.15 | 0.15 | 86 | 1010.0 |
| 20260504210329 | 13 | 150 | 0.0 | 3.2 | 0.00 | 0.15 | 0.15 | 86 | 1009.9 |
| 20260504210229 | 13 | 150 | 0.0 | 3.2 | 0.00 | 0.15 | 0.15 | 86 | 1009.9 |
| 20260504210207 | 13 | 150 | 0.0 | 3.2 | 0.00 | 0.15 | 0.15 | 85 | 1010.0 |
| 20260504210202 | 13 | 150 | 0.0 | 3.2 | 0.00 | 0.15 | 0.15 | 86 | 1009.9 |
| 20260504210158 | 13 | 150 | 0.0 | 3.2 | 0.00 | 0.15 | 0.15 | 86 | 1009.9 |
| 20260504205929 | 13 | 150 | 0.0 | 3.2 | 0.00 | 0.15 | 0.15 | 85 | 1010.0 |
| 20260504205829 | 13 | 150 | 0.0 | 3.2 | 0.00 | 0.15 | 0.15 | 85 | 1009.9 |
| 20260504205729 | 13 | 150 | 0.0 | 1.6 | 0.00 | 0.15 | 0.15 | 84 | 1009.9 |
| 20260504205629 | 13 | 150 | 0.0 | 1.6 | 0.00 | 0.15 | 0.15 | 84 | 1010.0 |
| 20260504205529 | 13 | 150 | 0.0 | 1.6 | 0.00 | 0.15 | 0.15 | 84 | 1009.9 |
| 20260504205429 | 13 | 150 | 0.0 | 1.6 | 0.00 | 0.15 | 0.15 | 84 | 1009.9 |
| 20260504205328 | 13 | 150 | 0.0 | 3.2 | 0.00 | 0.15 | 0.15 | 84 | 1009.9 |
| 20260504205228 | 13 | 150 | 0.0 | 3.2 | 0.00 | 0.15 | 0.15 | 84 | 1009.9 |
| 20260504205203 | 13 | 150 | 1.6 | 3.2 | 0.00 | 0.15 | 0.15 | 84 | 1009.9 |
| 20260504205158 | 13 | 150 | 0.0 | 3.2 | 0.00 | 0.15 | 0.15 | 84 | 1009.9 |
| 20260504205154 | 13 | 150 | 0.0 | 3.2 | 0.00 | 0.15 | 0.15 | 84 | 1009.9 |
| 20260504204928 | 13 | 150 | 1.6 | 3.2 | 0.00 | 0.15 | 0.15 | 84 | 1009.9 |
| 20260504204829 | 13 | 150 | 1.6 | 4.8 | 0.00 | 0.15 | 0.15 | 85 | 1009.9 |
| 20260504204729 | 13 | 150 | 1.6 | 4.8 | 0.00 | 0.15 | 0.15 | 83 | 1009.9 |
| 20260504204629 | 13 | 150 | 1.6 | 4.8 | 0.00 | 0.15 | 0.15 | 83 | 1009.9 |
| 20260504204529 | 13 | 150 | 1.6 | 4.8 | 0.00 | 0.15 | 0.15 | 83 | 1010.0 |
| 20260504204429 | 13 | 150 | 1.6 | 4.8 | 0.00 | 0.15 | 0.15 | 83 | 1010.0 |
| 20260504204329 | 13 | 150 | 1.6 | 4.8 | 0.00 | 0.15 | 0.15 | 83 | 1010.0 |
| 20260504204229 | 13 | 150 | 1.6 | 4.8 | 0.00 | 0.15 | 0.15 | 83 | 1010.0 |
| 20260504204129 | 13 | 150 | 1.6 | 4.8 | 0.00 | 0.15 | 0.15 | 83 | 1010.0 |
| 20260504204029 | 13 | 150 | 1.6 | 4.8 | 0.00 | 0.15 | 0.15 | 83 | 1010.1 |
| 20260504203928 | 13 | 150 | 1.6 | 4.8 | 0.00 | 0.15 | 0.15 | 83 | 1010.1 |
| 20260504203828 | 13 | 150 | 1.6 | 4.8 | 0.00 | 0.15 | 0.15 | 83 | 1010.1 |
| 20260504203729 | 13 | 149 | 1.6 | 4.8 | 0.00 | 0.15 | 0.15 | 83 | 1010.0 |
| 20260504203629 | 13 | 115 | 1.6 | 4.8 | 0.00 | 0.15 | 0.15 | 83 | 1010.1 |
| 20260504203529 | 13 | 115 | 1.6 | 4.8 | 0.00 | 0.15 | 0.15 | 83 | 1010.1 |
| 20260504203429 | 13 | 115 | 1.6 | 4.8 | 0.00 | 0.15 | 0.15 | 81 | 1010.1 |
| 20260504203329 | 13 | 115 | 1.6 | 4.8 | 0.00 | 0.15 | 0.15 | 80 | 1010.1 |
| 20260504203230 | 13 | 115 | 1.6 | 4.8 | 0.00 | 0.15 | 0.15 | 81 | 1010.0 |
| 20260504203129 | 13 | 116 | 1.6 | 4.8 | 0.00 | 0.15 | 0.15 | 82 | 1010.0 |
| 20260504203029 | 13 | 115 | 1.6 | 4.8 | 0.00 | 0.15 | 0.15 | 82 | 1010.1 |
| 20260504202928 | 13 | 106 | 1.6 | 4.8 | 0.00 | 0.15 | 0.15 | 82 | 1010.0 |
| 20260504202829 | 13 | 105 | 1.6 | 4.8 | 0.00 | 0.15 | 0.15 | 83 | 1010.0 |
| 20260504202729 | 13 | 96 | 1.6 | 4.8 | 0.00 | 0.15 | 0.15 | 82 | 1010.0 |
| 20260504202629 | 13 | 95 | 1.6 | 4.8 | 0.00 | 0.15 | 0.15 | 82 | 1010.0 |
| 20260504202529 | 13 | 95 | 1.6 | 6.4 | 0.00 | 0.15 | 0.15 | 82 | 1010.0 |
| 20260504202437 | 13 | 94 | 1.6 | 6.4 | 0.00 | 0.15 | 0.15 | 83 | 1010.0 |
| 20260504202429 | 13 | 93 | 1.6 | 6.4 | 0.00 | 0.15 | 0.15 | 83 | 1010.0 |
| 20260504202328 | 13 | 92 | 1.6 | 6.4 | 0.00 | 0.15 | 0.15 | 82 | 1010.0 |
| 20260504202230 | 13 | 92 | 1.6 | 6.4 | 0.00 | 0.15 | 0.15 | 82 | 1010.0 |
| 20260504202128 | 13 | 94 | 1.6 | 6.4 | 0.00 | 0.15 | 0.15 | 82 | 1009.9 |
| 20260504202029 | 13 | 61 | 1.6 | 6.4 | 0.00 | 0.15 | 0.15 | 82 | 1010.0 |
| 20260504201936 | 13 | 109 | 1.6 | 6.4 | 0.00 | 0.15 | 0.15 | 82 | 1009.9 |
| 20260504201929 | 13 | 110 | 1.6 | 6.4 | 0.00 | 0.15 | 0.15 | 82 | 1009.9 |
| 20260504201828 | 13 | 100 | 1.6 | 6.4 | 0.00 | 0.15 | 0.15 | 82 | 1010.0 |
| 20260504201729 | 13 | 101 | 1.6 | 6.4 | 0.00 | 0.15 | 0.15 | 83 | 1010.0 |
| 20260504201628 | 13 | 101 | 1.6 | 6.4 | 0.00 | 0.15 | 0.15 | 84 | 1010.0 |
| 20260504201529 | 13 | 97 | 1.6 | 4.8 | 0.00 | 0.15 | 0.15 | 84 | 1010.0 |
| 20260504201434 | 13 | 98 | 1.6 | 4.8 | 0.00 | 0.15 | 0.15 | 84 | 1010.0 |
| 20260504201427 | 13 | 99 | 1.6 | 4.8 | 0.00 | 0.15 | 0.15 | 84 | 1010.0 |
| 20260504201327 | 13 | 95 | 0.0 | 4.8 | 0.00 | 0.15 | 0.15 | 84 | 1010.1 |
| 20260504201227 | 13 | 105 | 0.0 | 4.8 | 0.00 | 0.15 | 0.15 | 85 | 1010.1 |
| 20260504201127 | 13 | 102 | 0.0 | 3.2 | 0.00 | 0.15 | 0.15 | 85 | 1010.1 |
| 20260504201027 | 13 | 105 | 0.0 | 3.2 | 0.00 | 0.15 | 0.15 | 85 | 1010.1 |
| 20260504200927 | 13 | 104 | 0.0 | 3.2 | 0.00 | 0.15 | 0.15 | 84 | 1010.1 |
| 20260504200824 | 13 | 104 | 0.0 | 3.2 | 0.00 | 0.15 | 0.15 | 84 | 1010.2 |
| 20260504200720 | 13 | 104 | 0.0 | 3.2 | 0.00 | 0.15 | 0.15 | 85 | 1010.2 |
| 20260504200620 | 13 | 104 | 0.0 | 3.2 | 0.00 | 0.15 | 0.15 | 85 | 1010.2 |
| 20260504200521 | 13 | 104 | 0.0 | 3.2 | 0.00 | 0.15 | 0.15 | 85 | 1010.2 |
| 20260504200420 | 13 | 104 | 1.6 | 3.2 | 0.00 | 0.15 | 0.15 | 85 | 1010.4 |
| 20260504200320 | 13 | 104 | 1.6 | 3.2 | 0.00 | 0.15 | 0.15 | 85 | 1010.4 |
| 20260504200220 | 13 | 104 | 1.6 | 3.2 | 0.00 | 0.15 | 0.15 | 85 | 1010.4 |
| 20260504200121 | 13 | 104 | 1.6 | 4.8 | 0.00 | 0.15 | 0.15 | 85 | 1010.4 |
| 20260504200021 | 13 | 104 | 1.6 | 4.8 | 0.00 | 0.15 | 0.15 | 84 | 1010.4 |
| 20260504195935 | 13 | 104 | 1.6 | 4.8 | 0.00 | 0.15 | 0.15 | 85 | 1010.4 |
| 20260504195921 | 13 | 103 | 1.6 | 4.8 | 0.00 | 0.15 | 0.15 | 85 | 1010.4 |
| 20260504195821 | 13 | 104 | 1.6 | 4.8 | 0.03 | 0.15 | 0.15 | 84 | 1010.4 |
| 20260504195718 | 13 | 104 | 1.6 | 4.8 | 0.03 | 0.15 | 0.15 | 85 | 1010.5 |
| 20260504195618 | 13 | 104 | 1.6 | 4.8 | 0.03 | 0.15 | 0.15 | 84 | 1010.5 |
| 20260504195514 | 13 | 103 | 1.6 | 6.4 | 0.03 | 0.15 | 0.15 | 83 | 1010.5 |
| 20260504195415 | 13 | 103 | 1.6 | 6.4 | 0.05 | 0.15 | 0.15 | 83 | 1010.4 |
| 20260504195315 | 13 | 103 | 1.6 | 6.4 | 0.05 | 0.15 | 0.15 | 83 | 1010.4 |
| 20260504195214 | 13 | 103 | 3.2 | 11.3 | 0.05 | 0.15 | 0.15 | 83 | 1010.4 |
| 20260504195157 | 13 | 107 | 3.2 | 12.9 | 0.05 | 0.15 | 0.15 | 83 | 1010.4 |
| 20260504195151 | 13 | 104 | 3.2 | 12.9 | 0.05 | 0.15 | 0.15 | 83 | 1010.2 |
| 20260504195147 | 13 | 107 | 3.2 | 12.9 | 0.05 | 0.15 | 0.15 | 83 | 1010.2 |
| 20260504194915 | 13 | 107 | 3.2 | 12.9 | 0.05 | 0.15 | 0.15 | 82 | 1010.4 |
| 20260504194815 | 13 | 108 | 3.2 | 12.9 | 0.08 | 0.15 | 0.15 | 82 | 1010.4 |
| 20260504194715 | 13 | 110 | 4.8 | 12.9 | 0.08 | 0.15 | 0.15 | 82 | 1010.2 |
| 20260504194615 | 13 | 111 | 4.8 | 12.9 | 0.10 | 0.15 | 0.15 | 82 | 1010.2 |
| 20260504194514 | 13 | 127 | 4.8 | 12.9 | 0.13 | 0.15 | 0.15 | 82 | 1010.1 |
| 20260504194414 | 13 | 128 | 4.8 | 12.9 | 0.13 | 0.15 | 0.15 | 82 | 1010.2 |
| 20260504194314 | 13 | 129 | 4.8 | 12.9 | 0.15 | 0.15 | 0.15 | 83 | 1010.2 |
| 20260504194214 | 13 | 140 | 4.8 | 12.9 | 0.15 | 0.15 | 0.15 | 82 | 1010.2 |
| 20260504194115 | 13 | 155 | 3.2 | 11.3 | 0.15 | 0.15 | 0.15 | 82 | 1010.2 |
| 20260504194015 | 13 | 123 | 3.2 | 11.3 | 0.15 | 0.15 | 0.15 | 83 | 1010.2 |
| 20260504193914 | 13 | 153 | 3.2 | 11.3 | 0.15 | 0.15 | 0.15 | 82 | 1010.2 |
| 20260504193815 | 13 | 150 | 3.2 | 11.3 | 0.15 | 0.15 | 0.15 | 83 | 1010.1 |
| 20260504193715 | 13 | 163 | 3.2 | 11.3 | 0.15 | 0.15 | 0.15 | 83 | 1010.1 |
| 20260504193611 | 13 | 173 | 3.2 | 11.3 | 0.15 | 0.15 | 0.15 | 83 | 1010.2 |
| 20260504193512 | 13 | 161 | 3.2 | 11.3 | 0.15 | 0.15 | 0.15 | 83 | 1010.1 |
| 20260504193434 | 13 | 163 | 1.6 | 11.3 | 0.15 | 0.15 | 0.15 | 83 | 1010.1 |
| 20260504193411 | 13 | 175 | 1.6 | 11.3 | 0.15 | 0.15 | 0.15 | 83 | 1010.1 |
| 20260504193311 | 13 | 148 | 1.6 | 6.4 | 0.15 | 0.15 | 0.15 | 83 | 1010.1 |
| 20260504193211 | 13 | 114 | 1.6 | 4.8 | 0.15 | 0.15 | 0.15 | 82 | 1010.1 |
| 20260504193111 | 13 | 96 | 1.6 | 4.8 | 0.15 | 0.15 | 0.15 | 82 | 1010.0 |
| 20260504193010 | 13 | 96 | 1.6 | 6.4 | 0.15 | 0.15 | 0.15 | 82 | 1010.0 |
| 20260504192910 | 13 | 95 | 1.6 | 6.4 | 0.15 | 0.15 | 0.15 | 82 | 1010.0 |
| 20260504192811 | 13 | 96 | 1.6 | 6.4 | 0.15 | 0.15 | 0.15 | 81 | 1010.0 |
| 20260504192711 | 13 | 101 | 1.6 | 6.4 | 0.15 | 0.15 | 0.15 | 81 | 1010.0 |
| 20260504192611 | 14 | 101 | 1.6 | 6.4 | 0.15 | 0.15 | 0.15 | 81 | 1010.0 |
| 20260504192511 | 14 | 98 | 1.6 | 6.4 | 0.15 | 0.15 | 0.15 | 81 | 1010.0 |
| 20260504192410 | 14 | 101 | 1.6 | 6.4 | 0.15 | 0.15 | 0.15 | 81 | 1010.0 |
| 20260504192310 | 14 | 101 | 1.6 | 6.4 | 0.15 | 0.15 | 0.15 | 81 | 1010.0 |
| 20260504192210 | 14 | 111 | 1.6 | 6.4 | 0.15 | 0.15 | 0.15 | 81 | 1010.0 |
| 20260504192110 | 14 | 111 | 1.6 | 6.4 | 0.15 | 0.15 | 0.15 | 82 | 1010.0 |
| 20260504192010 | 14 | 105 | 1.6 | 6.4 | 0.15 | 0.15 | 0.15 | 81 | 1010.0 |
| 20260504191932 | 14 | 94 | 1.6 | 6.4 | 0.15 | 0.15 | 0.15 | 81 | 1010.0 |
| 20260504191911 | 14 | 91 | 1.6 | 6.4 | 0.15 | 0.15 | 0.15 | 81 | 1010.0 |
| 20260504191811 | 14 | 91 | 3.2 | 9.7 | 0.15 | 0.15 | 0.15 | 81 | 1010.0 |
| 20260504191707 | 14 | 90 | 3.2 | 9.7 | 0.15 | 0.15 | 0.15 | 81 | 1010.0 |
| 20260504191606 | 14 | 90 | 3.2 | 11.3 | 0.15 | 0.15 | 0.15 | 81 | 1010.0 |
| 20260504191506 | 14 | 90 | 3.2 | 11.3 | 0.15 | 0.15 | 0.15 | 81 | 1010.1 |
| 20260504191431 | 14 | 84 | 3.2 | 11.3 | 0.15 | 0.15 | 0.15 | 81 | 1010.1 |
| 20260504191407 | 14 | 90 | 3.2 | 11.3 | 0.15 | 0.15 | 0.15 | 81 | 1010.1 |
| 20260504191306 | 14 | 85 | 3.2 | 11.3 | 0.15 | 0.15 | 0.15 | 80 | 1010.1 |
| 20260504191206 | 14 | 96 | 3.2 | 11.3 | 0.15 | 0.15 | 0.15 | 80 | 1010.1 |
| 20260504191106 | 14 | 92 | 4.8 | 11.3 | 0.15 | 0.15 | 0.15 | 80 | 1010.1 |
| 20260504191007 | 15 | 103 | 4.8 | 11.3 | 0.15 | 0.15 | 0.15 | 80 | 1010.2 |
| 20260504190930 | 15 | 61 | 3.2 | 11.3 | 0.15 | 0.15 | 0.15 | 80 | 1010.2 |
| 20260504190906 | 15 | 106 | 3.2 | 11.3 | 0.15 | 0.15 | 0.15 | 80 | 1010.2 |
| 20260504190806 | 15 | 88 | 3.2 | 11.3 | 0.15 | 0.15 | 0.15 | 80 | 1010.4 |
| 20260504190706 | 15 | 115 | 3.2 | 11.3 | 0.15 | 0.15 | 0.15 | 80 | 1010.4 |
| 20260504190652 | 15 | 82 | 3.2 | 6.4 | 0.15 | 0.15 | 0.15 | 78 | 1010.5 |
| 20260504190646 | 15 | 88 | 3.2 | 8.0 | 0.15 | 0.15 | 0.15 | 79 | 1010.5 |
| 20260504190640 | 15 | 79 | 3.2 | 8.0 | 0.15 | 0.15 | 0.15 | 79 | 1010.4 |
| 20260504190407 | 15 | 82 | 3.2 | 6.4 | 0.15 | 0.15 | 0.15 | 77 | 1010.5 |
| 20260504190307 | 15 | 81 | 3.2 | 6.4 | 0.15 | 0.15 | 0.15 | 77 | 1010.5 |
| 20260504190207 | 15 | 101 | 3.2 | 6.4 | 0.15 | 0.15 | 0.15 | 76 | 1010.4 |
| 20260504190107 | 15 | 91 | 3.2 | 6.4 | 0.15 | 0.15 | 0.15 | 76 | 1010.5 |
| 20260504190007 | 15 | 116 | 3.2 | 8.0 | 0.15 | 0.15 | 0.15 | 76 | 1010.5 |
| 20260504185931 | 15 | 96 | 3.2 | 8.0 | 0.15 | 0.15 | 0.13 | 76 | 1010.5 |
| 20260504185911 | 15 | 114 | 3.2 | 8.0 | 0.13 | 0.13 | 0.13 | 76 | 1010.5 |
| 20260504185802 | 16 | 103 | 3.2 | 8.0 | 0.13 | 0.13 | 0.13 | 76 | 1010.6 |
| 20260504185702 | 16 | 111 | 4.8 | 9.7 | 0.13 | 0.13 | 0.13 | 75 | 1010.7 |
| 20260504185602 | 16 | 127 | 4.8 | 14.5 | 0.13 | 0.13 | 0.13 | 75 | 1010.7 |
| 20260504185503 | 16 | 115 | 6.4 | 17.7 | 0.13 | 0.13 | 0.10 | 76 | 1010.7 |
| 20260504185430 | 16 | 105 | 6.4 | 17.7 | 0.10 | 0.10 | 0.10 | 76 | 1010.8 |
| 20260504185421 | 17 | 230 | 11.3 | 29.0 | 0.08 | 0.08 | 0.05 | 72 | 1010.7 |
| 20260504185416 | 16 | 115 | 6.4 | 17.7 | 0.10 | 0.10 | 0.10 | 76 | 1010.8 |
| 20260504185407 | 16 | 134 | 8.0 | 17.7 | 0.10 | 0.10 | 0.10 | 74 | 1010.8 |
| 20260504185403 | 16 | 183 | 9.7 | 20.9 | 0.10 | 0.10 | 0.10 | 72 | 1010.8 |
| 20260504185145 | 16 | 183 | 9.7 | 29.0 | 0.10 | 0.10 | 0.08 | 73 | 1010.8 |
| 20260504185141 | 17 | 202 | 9.7 | 29.0 | 0.08 | 0.08 | 0.08 | 72 | 1010.8 |
| 20260504184903 | 17 | 231 | 11.3 | 29.0 | 0.08 | 0.08 | 0.05 | 72 | 1010.7 |
| 20260504184800 | 17 | 228 | 11.3 | 29.0 | 0.05 | 0.05 | 0.05 | 70 | 1010.7 |
| 20260504184700 | 17 | 279 | 12.9 | 29.0 | 0.05 | 0.05 | 0.05 | 68 | 1010.7 |
| 20260504184600 | 17 | 232 | 12.9 | 29.0 | 0.05 | 0.05 | 0.03 | 68 | 1010.7 |
| 20260504184501 | 17 | 245 | 12.9 | 29.0 | 0.03 | 0.03 | 0.03 | 67 | 1010.6 |
| 20260504184430 | 17 | 259 | 12.9 | 29.0 | 0.03 | 0.03 | 0.00 | 67 | 1010.6 |
| 20260504184407 | 17 | 277 | 12.9 | 29.0 | 0.03 | 0.03 | 0.00 | 67 | 1010.6 |
| 20260504184301 | 17 | 232 | 12.9 | 29.0 | 0.00 | 0.00 | 0.00 | 65 | 1010.6 |
| 20260504184200 | 18 | 257 | 14.5 | 29.0 | 0.00 | 0.00 | 0.00 | 64 | 1010.6 |
| 20260504184100 | 18 | 273 | 14.5 | 27.4 | 0.00 | 0.00 | 0.00 | 62 | 1010.6 |
| 20260504184001 | 18 | 238 | 14.5 | 27.4 | 0.00 | 0.00 | 0.00 | 61 | 1010.5 |
| 20260504183930 | 18 | 240 | 14.5 | 27.4 | 0.00 | 0.00 | 0.00 | 61 | 1010.5 |
| 20260504183901 | 18 | 273 | 14.5 | 27.4 | 0.00 | 0.00 | 0.00 | 60 | 1010.5 |
| 20260504183801 | 18 | 225 | 14.5 | 27.4 | 0.00 | 0.00 | 0.00 | 58 | 1010.4 |
| 20260504183701 | 18 | 212 | 14.5 | 27.4 | 0.00 | 0.00 | 0.00 | 57 | 1010.4 |
| 20260504183654 | 18 | 219 | 14.5 | 32.2 | 0.00 | 0.00 | 0.00 | 54 | 1010.0 |
| 20260504183646 | 18 | 210 | 16.1 | 27.4 | 0.00 | 0.00 | 0.00 | 55 | 1010.1 |
| 20260504183642 | 18 | 212 | 16.1 | 32.2 | 0.00 | 0.00 | 0.00 | 54 | 1010.1 |
| 20260504183401 | 18 | 192 | 14.5 | 32.2 | 0.00 | 0.00 | 0.00 | 54 | 1010.0 |
| 20260504183301 | 18 | 209 | 14.5 | 32.2 | 0.00 | 0.00 | 0.00 | 55 | 1009.9 |
| 20260504183201 | 19 | 159 | 12.9 | 32.2 | 0.00 | 0.00 | 0.00 | 55 | 1009.9 |
| 20260504183152 | 19 | 215 | 9.7 | 32.2 | 0.00 | 0.00 | 0.00 | 54 | 1009.8 |
| 20260504183147 | 19 | 197 | 12.9 | 32.2 | 0.00 | 0.00 | 0.00 | 55 | 1009.9 |
| 20260504183143 | 19 | 211 | 11.3 | 32.2 | 0.00 | 0.00 | 0.00 | 54 | 1009.8 |
| 20260504182900 | 19 | 210 | 9.7 | 32.2 | 0.00 | 0.00 | 0.00 | 53 | 1009.8 |
| 20260504182800 | 20 | 236 | 8.0 | 32.2 | 0.00 | 0.00 | 0.00 | 53 | 1009.8 |
| 20260504182700 | 20 | 207 | 6.4 | 32.2 | 0.00 | 0.00 | 0.00 | 53 | 1009.8 |
| 20260504182600 | 20 | 231 | 6.4 | 32.2 | 0.00 | 0.00 | 0.00 | 52 | 1009.8 |
| 20260504182500 | 20 | 202 | 3.2 | 24.1 | 0.00 | 0.00 | 0.00 | 52 | 1009.7 |
| 20260504182429 | 20 | 201 | 3.2 | 12.9 | 0.00 | 0.00 | 0.00 | 52 | 1009.6 |
| 20260504182401 | 20 | 216 | 3.2 | 11.3 | 0.00 | 0.00 | 0.00 | 51 | 1009.6 |
| 20260504182301 | 20 | 207 | 3.2 | 9.7 | 0.00 | 0.00 | 0.00 | 50 | 1009.4 |
| 20260504182201 | 20 | 42 | 1.6 | 8.0 | 0.00 | 0.00 | 0.00 | 49 | 1009.3 |
| 20260504182101 | 20 | 41 | 3.2 | 8.0 | 0.00 | 0.00 | 0.00 | 49 | 1009.3 |
| 20260504182002 | 20 | 41 | 3.2 | 8.0 | 0.00 | 0.00 | 0.00 | 50 | 1009.2 |
| 20260504181900 | 20 | 41 | 3.2 | 8.0 | 0.00 | 0.00 | 0.00 | 49 | 1009.1 |
| 20260504181801 | 20 | 41 | 3.2 | 8.0 | 0.00 | 0.00 | 0.00 | 49 | 1009.1 |
| 20260504181702 | 20 | 41 | 3.2 | 8.0 | 0.00 | 0.00 | 0.00 | 49 | 1009.1 |
| 20260504181601 | 20 | 71 | 3.2 | 6.4 | 0.00 | 0.00 | 0.00 | 48 | 1009.1 |
| 20260504181501 | 20 | 71 | 3.2 | 6.4 | 0.00 | 0.00 | 0.00 | 48 | 1009.1 |
| 20260504181401 | 20 | 71 | 3.2 | 6.4 | 0.00 | 0.00 | 0.00 | 48 | 1009.1 |
| 20260504181301 | 20 | 26 | 3.2 | 6.4 | 0.00 | 0.00 | 0.00 | 48 | 1009.1 |
| 20260504181202 | 20 | 26 | 3.2 | 8.0 | 0.00 | 0.00 | 0.00 | 48 | 1009.1 |
| 20260504181101 | 20 | 24 | 3.2 | 11.3 | 0.00 | 0.00 | 0.00 | 48 | 1009.1 |
| 20260504181001 | 20 | 37 | 3.2 | 11.3 | 0.00 | 0.00 | 0.00 | 48 | 1009.1 |
| 20260504180922 | 20 | 37 | 4.8 | 11.3 | 0.00 | 0.00 | 0.00 | 47 | 1009.1 |
| 20260504180901 | 20 | 38 | 4.8 | 11.3 | 0.00 | 0.00 | 0.00 | 47 | 1009.1 |
| 20260504180801 | 20 | 38 | 4.8 | 11.3 | 0.00 | 0.00 | 0.00 | 48 | 1009.1 |
| 20260504180700 | 20 | 35 | 4.8 | 11.3 | 0.00 | 0.00 | 0.00 | 47 | 1009.1 |
| 20260504180600 | 20 | 19 | 4.8 | 11.3 | 0.00 | 0.00 | 0.00 | 47 | 1009.1 |
| 20260504180500 | 20 | 19 | 4.8 | 11.3 | 0.00 | 0.00 | 0.00 | 47 | 1009.1 |
| 20260504180401 | 20 | 22 | 4.8 | 11.3 | 0.00 | 0.00 | 0.00 | 47 | 1009.2 |
| 20260504180300 | 20 | 22 | 4.8 | 11.3 | 0.00 | 0.00 | 0.00 | 47 | 1009.1 |
| 20260504180200 | 20 | 31 | 4.8 | 11.3 | 0.00 | 0.00 | 0.00 | 47 | 1009.1 |
| 20260504180100 | 20 | 19 | 4.8 | 11.3 | 0.00 | 0.00 | 0.00 | 47 | 1009.1 |
| 20260504180001 | 20 | 13 | 4.8 | 11.3 | 0.00 | 0.00 | 0.00 | 46 | 1009.1 |
| 20260504175922 | 20 | 12 | 4.8 | 11.3 | 0.00 | 0.00 | 0.00 | 46 | 1009.1 |
| 20260504175900 | 20 | 19 | 4.8 | 11.3 | 0.00 | 0.00 | 0.00 | 46 | 1009.1 |
| 20260504175800 | 20 | 20 | 4.8 | 11.3 | 0.00 | 0.00 | 0.00 | 47 | 1009.1 |
| 20260504175700 | 20 | 40 | 3.2 | 11.3 | 0.00 | 0.00 | 0.00 | 47 | 1009.1 |
| 20260504175646 | 20 | 43 | 3.2 | 11.3 | 0.00 | 0.00 | 0.00 | 47 | 1009.1 |
| 20260504175636 | 20 | 20 | 3.2 | 11.3 | 0.00 | 0.00 | 0.00 | 46 | 1009.1 |
| 20260504175632 | 20 | 36 | 3.2 | 11.3 | 0.00 | 0.00 | 0.00 | 47 | 1009.1 |
| 20260504175401 | 20 | 5 | 3.2 | 11.3 | 0.00 | 0.00 | 0.00 | 47 | 1009.1 |
| 20260504175301 | 20 | 21 | 4.8 | 11.3 | 0.00 | 0.00 | 0.00 | 47 | 1009.1 |
| 20260504175201 | 21 | 335 | 4.8 | 11.3 | 0.00 | 0.00 | 0.00 | 47 | 1009.1 |
| 20260504175101 | 21 | 24 | 3.2 | 8.0 | 0.00 | 0.00 | 0.00 | 46 | 1009.1 |
| 20260504175002 | 21 | 36 | 3.2 | 8.0 | 0.00 | 0.00 | 0.00 | 46 | 1009.1 |
| 20260504174901 | 21 | 36 | 3.2 | 8.0 | 0.00 | 0.00 | 0.00 | 46 | 1009.1 |
| 20260504174801 | 21 | 36 | 4.8 | 8.0 | 0.00 | 0.00 | 0.00 | 46 | 1009.1 |
| 20260504174701 | 21 | 28 | 3.2 | 8.0 | 0.00 | 0.00 | 0.00 | 46 | 1009.0 |
| 20260504174600 | 21 | 30 | 3.2 | 8.0 | 0.00 | 0.00 | 0.00 | 47 | 1009.0 |
| 20260504174502 | 21 | 30 | 3.2 | 8.0 | 0.00 | 0.00 | 0.00 | 46 | 1009.0 |
| 20260504174401 | 21 | 16 | 3.2 | 8.0 | 0.00 | 0.00 | 0.00 | 46 | 1009.0 |
| 20260504174301 | 21 | 19 | 3.2 | 6.4 | 0.00 | 0.00 | 0.00 | 46 | 1009.0 |
| 20260504174201 | 21 | 36 | 3.2 | 6.4 | 0.00 | 0.00 | 0.00 | 46 | 1009.0 |
| 20260504174101 | 21 | 44 | 3.2 | 6.4 | 0.00 | 0.00 | 0.00 | 45 | 1009.0 |
| 20260504174001 | 21 | 44 | 3.2 | 6.4 | 0.00 | 0.00 | 0.00 | 46 | 1009.0 |
| 20260504173901 | 21 | 44 | 1.6 | 6.4 | 0.00 | 0.00 | 0.00 | 46 | 1009.1 |
| 20260504173801 | 21 | 25 | 1.6 | 6.4 | 0.00 | 0.00 | 0.00 | 45 | 1009.0 |
| 20260504173701 | 21 | 25 | 1.6 | 6.4 | 0.00 | 0.00 | 0.00 | 46 | 1009.0 |
| 20260504173601 | 21 | 26 | 1.6 | 6.4 | 0.00 | 0.00 | 0.00 | 46 | 1009.0 |
| 20260504173501 | 21 | 25 | 1.6 | 6.4 | 0.00 | 0.00 | 0.00 | 45 | 1009.0 |
| 20260504173400 | 21 | 86 | 1.6 | 4.8 | 0.00 | 0.00 | 0.00 | 46 | 1009.0 |
| 20260504173301 | 21 | 87 | 1.6 | 4.8 | 0.00 | 0.00 | 0.00 | 46 | 1009.0 |
| 20260504173201 | 21 | 87 | 1.6 | 3.2 | 0.00 | 0.00 | 0.00 | 46 | 1009.0 |
| 20260504173100 | 21 | 88 | 1.6 | 3.2 | 0.00 | 0.00 | 0.00 | 47 | 1009.0 |
| 20260504173001 | 21 | 88 | 1.6 | 3.2 | 0.00 | 0.00 | 0.00 | 46 | 1009.0 |
| 20260504172900 | 21 | 88 | 1.6 | 3.2 | 0.00 | 0.00 | 0.00 | 46 | 1009.0 |
| 20260504172801 | 21 | 87 | 1.6 | 3.2 | 0.00 | 0.00 | 0.00 | 46 | 1009.0 |
| 20260504172700 | 21 | 87 | 1.6 | 3.2 | 0.00 | 0.00 | 0.00 | 46 | 1009.0 |
| 20260504172601 | 21 | 87 | 1.6 | 3.2 | 0.00 | 0.00 | 0.00 | 46 | 1009.0 |
| 20260504172501 | 21 | 87 | 1.6 | 3.2 | 0.00 | 0.00 | 0.00 | 49 | 1008.9 |
| 20260504172419 | 21 | 87 | 1.6 | 3.2 | 0.00 | 0.00 | 0.00 | 49 | 1008.9 |
| 20260504172401 | 21 | 87 | 1.6 | 3.2 | 0.00 | 0.00 | 0.00 | 48 | 1008.9 |
| 20260504172303 | 21 | 87 | 1.6 | 3.2 | 0.00 | 0.00 | 0.00 | 48 | 1009.0 |
| 20260504172201 | 21 | 87 | 0.0 | 3.2 | 0.00 | 0.00 | 0.00 | 47 | 1009.0 |
| 20260504172143 | 21 | 87 | 0.0 | 3.2 | 0.00 | 0.00 | 0.00 | 47 | 1009.0 |
| 20260504172135 | 21 | 87 | 0.0 | 3.2 | 0.00 | 0.00 | 0.00 | 47 | 1009.0 |
| 20260504172130 | 21 | 87 | 0.0 | 3.2 | 0.00 | 0.00 | 0.00 | 47 | 1009.0 |
| 20260504171901 | 21 | 87 | 0.0 | 3.2 | 0.00 | 0.00 | 0.00 | 46 | 1009.0 |
| 20260504171800 | 21 | 87 | 1.6 | 4.8 | 0.00 | 0.00 | 0.00 | 46 | 1009.0 |
| 20260504171701 | 21 | 87 | 1.6 | 4.8 | 0.00 | 0.00 | 0.00 | 47 | 1009.0 |
| 20260504171601 | 21 | 87 | 1.6 | 4.8 | 0.00 | 0.00 | 0.00 | 47 | 1009.0 |
| 20260504171501 | 21 | 87 | 1.6 | 4.8 | 0.00 | 0.00 | 0.00 | 46 | 1009.0 |
| 20260504171401 | 21 | 87 | 1.6 | 4.8 | 0.00 | 0.00 | 0.00 | 46 | 1009.0 |
| 20260504171301 | 21 | 87 | 1.6 | 4.8 | 0.00 | 0.00 | 0.00 | 46 | 1009.0 |
| 20260504171201 | 21 | 87 | 1.6 | 4.8 | 0.00 | 0.00 | 0.00 | 46 | 1009.0 |
| 20260504171101 | 21 | 87 | 1.6 | 4.8 | 0.00 | 0.00 | 0.00 | 45 | 1009.1 |
| 20260504171001 | 21 | 87 | 1.6 | 4.8 | 0.00 | 0.00 | 0.00 | 45 | 1009.0 |
| 20260504170901 | 21 | 87 | 1.6 | 4.8 | 0.00 | 0.00 | 0.00 | 46 | 1009.0 |
| 20260504170801 | 21 | 88 | 0.0 | 4.8 | 0.00 | 0.00 | 0.00 | 47 | 1009.1 |
| 20260504170658 | 21 | 88 | 0.0 | 4.8 | 0.00 | 0.00 | 0.00 | 47 | 1009.1 |
| 20260504170558 | 21 | 89 | 0.0 | 3.2 | 0.00 | 0.00 | 0.00 | 48 | 1009.0 |
| 20260504170458 | 21 | 98 | 0.0 | 0.0 | 0.00 | 0.00 | 0.00 | 47 | 1009.0 |
| 20260504170418 | 21 | 98 | 0.0 | 0.0 | 0.00 | 0.00 | 0.00 | 46 | 1009.1 |
| 20260504170358 | 21 | 98 | 0.0 | 1.6 | 0.00 | 0.00 | 0.00 | 46 | 1009.1 |
| 20260504170257 | 21 | 98 | 0.0 | 1.6 | 0.00 | 0.00 | 0.00 | 46 | 1009.1 |
| 20260504170156 | 21 | 98 | 0.0 | 1.6 | 0.00 | 0.00 | 0.00 | 45 | 1009.1 |
| 20260504160402 | 21 | 101 | 1.6 | 6.4 | 0.00 | 0.00 | 0.00 | 42 | 1009.1 |
| 20260504160325 | 21 | 101 | 1.6 | 6.4 | 0.00 | 0.00 | 0.00 | 42 | 1009.1 |
| 20260504160224 | 21 | 103 | 1.6 | 6.4 | 0.00 | 0.00 | 0.00 | 43 | 1009.1 |
| 20260504160122 | 21 | 103 | 1.6 | 6.4 | 0.00 | 0.00 | 0.00 | 46 | 1009.1 |
| 20260504151117 | 23 | 215 | 1.6 | 6.4 | 0.00 | 0.00 | 0.00 | 41 | 1009.2 |
| 20260504151113 | 23 | 80 | 1.6 | 6.4 | 0.00 | 0.00 | 0.00 | 40 | 1009.2 |
| 20260504150758 | 23 | 80 | 1.6 | 6.4 | 0.00 | 0.00 | 0.00 | 41 | 1009.2 |
| 20260504150655 | 23 | 81 | 1.6 | 6.4 | 0.00 | 0.00 | 0.00 | 40 | 1009.2 |
| 20260504150555 | 23 | 81 | 1.6 | 6.4 | 0.00 | 0.00 | 0.00 | 41 | 1009.2 |
| 20260504150456 | 23 | 81 | 1.6 | 6.4 | 0.00 | 0.00 | 0.00 | 42 | 1009.2 |
| 20260504150400 | 23 | 81 | 1.6 | 6.4 | 0.00 | 0.00 | 0.00 | 40 | 1009.2 |
| 20260504150355 | 23 | 81 | 1.6 | 6.4 | 0.00 | 0.00 | 0.00 | 40 | 1009.2 |
| 20260504150256 | 23 | 81 | 1.6 | 6.4 | 0.00 | 0.00 | 0.00 | 41 | 1009.2 |
| 20260504150154 | 23 | 80 | 1.6 | 6.4 | 0.00 | 0.00 | 0.00 | 41 | 1009.2 |
| 20260504141328 | 23 | 86 | 3.2 | 11.3 | 0.00 | 0.00 | 0.00 | 40 | 1009.5 |
| 20260504141229 | 23 | 53 | 3.2 | 11.3 | 0.00 | 0.00 | 0.00 | 40 | 1009.5 |
| 20260504141129 | 23 | 53 | 3.2 | 11.3 | 0.00 | 0.00 | 0.00 | 41 | 1009.5 |
| 20260504141029 | 23 | 53 | 3.2 | 11.3 | 0.00 | 0.00 | 0.00 | 42 | 1009.5 |
| 20260504140929 | 23 | 40 | 3.2 | 11.3 | 0.00 | 0.00 | 0.00 | 42 | 1009.5 |
| 20260504140900 | 23 | 41 | 3.2 | 11.3 | 0.00 | 0.00 | 0.00 | 42 | 1009.5 |
| 20260504140828 | 23 | 41 | 3.2 | 11.3 | 0.00 | 0.00 | 0.00 | 42 | 1009.6 |
| 20260504140726 | 23 | 14 | 3.2 | 11.3 | 0.00 | 0.00 | 0.00 | 40 | 1009.6 |
| 20260504140626 | 23 | 14 | 3.2 | 11.3 | 0.00 | 0.00 | 0.00 | 42 | 1009.6 |
| 20260504140526 | 23 | 10 | 3.2 | 11.3 | 0.00 | 0.00 | 0.00 | 42 | 1009.7 |
| 20260504140426 | 23 | 9 | 3.2 | 11.3 | 0.00 | 0.00 | 0.00 | 41 | 1009.6 |
| 20260504140400 | 23 | 9 | 3.2 | 11.3 | 0.00 | 0.00 | 0.00 | 42 | 1009.6 |
| 20260504140322 | 23 | 0 | 3.2 | 9.7 | 0.00 | 0.00 | 0.00 | 41 | 1009.7 |
| 20260504140221 | 23 | 9 | 3.2 | 9.7 | 0.00 | 0.00 | 0.00 | 41 | 1009.6 |
| 20260504140121 | 23 | 11 | 3.2 | 9.7 | 0.00 | 0.00 | 0.00 | 41 | 1009.7 |
| 20260504130800 | 21 | 0 | 3.2 | 8.0 | 0.00 | 0.00 | 0.00 | 47 | 1010.0 |
| 20260504130700 | 21 | 56 | 3.2 | 6.4 | 0.00 | 0.00 | 0.00 | 44 | 1010.0 |
| 20260504130600 | 21 | 113 | 3.2 | 6.4 | 0.00 | 0.00 | 0.00 | 43 | 1010.0 |
| 20260504130500 | 21 | 63 | 3.2 | 6.4 | 0.00 | 0.00 | 0.00 | 45 | 1010.1 |
| 20260504130400 | 21 | 11 | 3.2 | 6.4 | 0.00 | 0.00 | 0.00 | 46 | 1010.1 |
| 20260504130356 | 21 | 11 | 3.2 | 6.4 | 0.00 | 0.00 | 0.00 | 46 | 1010.1 |
| 20260504130300 | 21 | 11 | 3.2 | 6.4 | 0.00 | 0.00 | 0.00 | 46 | 1010.1 |
| 20260504130201 | 21 | 52 | 1.6 | 6.4 | 0.00 | 0.00 | 0.00 | 43 | 1010.1 |
| 20260504120239 | 22 | 94 | 3.2 | 12.9 | 0.00 | 0.00 | 0.00 | 42 | 1010.4 |
| 20260504120139 | 22 | 94 | 4.8 | 12.9 | 0.00 | 0.00 | 0.00 | 44 | 1010.4 |
| 20260504110630 | 21 | 58 | 6.4 | 19.3 | 0.00 | 0.00 | 0.00 | 46 | 1010.8 |
| 20260504110530 | 21 | 91 | 6.4 | 19.3 | 0.00 | 0.00 | 0.00 | 45 | 1010.8 |
| 20260504110429 | 21 | 121 | 6.4 | 19.3 | 0.00 | 0.00 | 0.00 | 47 | 1010.8 |
| 20260504110353 | 21 | 119 | 6.4 | 19.3 | 0.00 | 0.00 | 0.00 | 47 | 1010.8 |
| 20260504110329 | 21 | 83 | 6.4 | 19.3 | 0.00 | 0.00 | 0.00 | 47 | 1010.8 |
| 20260504110229 | 21 | 57 | 6.4 | 19.3 | 0.00 | 0.00 | 0.00 | 46 | 1010.8 |
| 20260504110129 | 21 | 84 | 6.4 | 19.3 | 0.00 | 0.00 | 0.00 | 46 | 1010.8 |
| 20260504100608 | 20 | 117 | 4.8 | 14.5 | 0.00 | 0.00 | 0.00 | 47 | 1011.5 |
| 20260504100602 | 20 | 95 | 4.8 | 14.5 | 0.00 | 0.00 | 0.00 | 48 | 1011.5 |
| 20260504100558 | 20 | 171 | 4.8 | 14.5 | 0.00 | 0.00 | 0.00 | 47 | 1011.5 |
| 20260504100317 | 20 | 106 | 4.8 | 14.5 | 0.00 | 0.00 | 0.00 | 47 | 1011.5 |
| 20260504100217 | 20 | 108 | 4.8 | 14.5 | 0.00 | 0.00 | 0.00 | 49 | 1011.6 |
| 20260504100117 | 20 | 118 | 4.8 | 14.5 | 0.00 | 0.00 | 0.00 | 47 | 1011.5 |
| 20260504082002 | 17 | 91 | 1.6 | 6.4 | 0.00 | 0.00 | 0.00 | 54 | 1012.6 |
| 20260504081901 | 17 | 91 | 1.6 | 6.4 | 0.00 | 0.00 | 0.00 | 54 | 1012.6 |
| 20260504081801 | 17 | 91 | 1.6 | 6.4 | 0.00 | 0.00 | 0.00 | 57 | 1012.6 |
| 20260504081701 | 17 | 95 | 3.2 | 6.4 | 0.00 | 0.00 | 0.00 | 56 | 1012.6 |
| 20260504081600 | 17 | 95 | 3.2 | 6.4 | 0.00 | 0.00 | 0.00 | 55 | 1012.6 |
| 20260504081500 | 17 | 89 | 3.2 | 6.4 | 0.00 | 0.00 | 0.00 | 56 | 1012.6 |
| 20260504081400 | 17 | 81 | 1.6 | 6.4 | 0.00 | 0.00 | 0.00 | 54 | 1012.6 |
| 20260504081329 | 17 | 115 | 1.6 | 6.4 | 0.00 | 0.00 | 0.00 | 54 | 1012.6 |
| 20260504081300 | 17 | 117 | 1.6 | 6.4 | 0.00 | 0.00 | 0.00 | 56 | 1012.6 |
| 20260504081200 | 17 | 73 | 1.6 | 6.4 | 0.00 | 0.00 | 0.00 | 57 | 1012.6 |
| 20260504081057 | 17 | 76 | 1.6 | 6.4 | 0.00 | 0.00 | 0.00 | 57 | 1012.6 |
| 20260504080957 | 17 | 89 | 1.6 | 6.4 | 0.00 | 0.00 | 0.00 | 55 | 1012.7 |
| 20260504080857 | 16 | 78 | 1.6 | 6.4 | 0.00 | 0.00 | 0.00 | 56 | 1012.6 |
| 20260504080829 | 16 | 65 | 1.6 | 6.4 | 0.00 | 0.00 | 0.00 | 56 | 1012.7 |
| 20260504080757 | 16 | 133 | 1.6 | 6.4 | 0.00 | 0.00 | 0.00 | 57 | 1012.7 |
| 20260504080656 | 16 | 132 | 1.6 | 6.4 | 0.00 | 0.00 | 0.00 | 57 | 1012.7 |
| 20260504080551 | 16 | 129 | 1.6 | 6.4 | 0.00 | 0.00 | 0.00 | 56 | 1012.7 |
| 20260504080451 | 16 | 129 | 1.6 | 6.4 | 0.00 | 0.00 | 0.00 | 58 | 1012.7 |
| 20260504080333 | 16 | 129 | 1.6 | 6.4 | 0.00 | 0.00 | 0.00 | 58 | 1012.7 |
| 20260504080251 | 16 | 129 | 1.6 | 6.4 | 0.00 | 0.00 | 0.00 | 59 | 1012.7 |
| 20260504080151 | 16 | 129 | 1.6 | 6.4 | 0.00 | 0.00 | 0.00 | 58 | 1012.7 |
| 20260504070329 | 16 | 243 | 0.0 | 8.0 | 0.00 | 0.00 | 0.00 | 62 | 1012.9 |
| 20260504070321 | 15 | 243 | 0.0 | 8.0 | 0.00 | 0.00 | 0.00 | 62 | 1012.9 |
| 20260504070220 | 16 | 108 | 0.0 | 3.2 | 0.00 | 0.00 | 0.00 | 61 | 1012.8 |
| 20260504070121 | 15 | 108 | 0.0 | 3.2 | 0.00 | 0.00 | 0.00 | 61 | 1012.8 |
| 20260504060248 | 12 | 92 | 1.6 | 3.2 | 0.00 | 0.00 | 0.00 | 73 | 1012.8 |
| 20260504060143 | 12 | 92 | 1.6 | 4.8 | 0.00 | 0.00 | 0.00 | 72 | 1012.8 |
| 20260504050729 | 11 | 113 | 1.6 | 9.7 | 0.00 | 0.00 | 0.00 | 75 | 1012.7 |
| 20260504050629 | 11 | 113 | 1.6 | 9.7 | 0.00 | 0.00 | 0.00 | 75 | 1012.7 |
| 20260504050528 | 11 | 129 | 1.6 | 9.7 | 0.00 | 0.00 | 0.00 | 75 | 1012.7 |
| 20260504050428 | 11 | 113 | 1.6 | 4.8 | 0.00 | 0.00 | 0.00 | 76 | 1012.7 |
| 20260504050329 | 11 | 111 | 1.6 | 4.8 | 0.00 | 0.00 | 0.00 | 76 | 1012.7 |
| 20260504050301 | 11 | 92 | 1.6 | 4.8 | 0.00 | 0.00 | 0.00 | 76 | 1012.7 |
| 20260504050229 | 11 | 90 | 1.6 | 4.8 | 0.00 | 0.00 | 0.00 | 76 | 1012.7 |
| 20260504050129 | 11 | 90 | 1.6 | 4.8 | 0.00 | 0.00 | 0.00 | 76 | 1012.7 |
| 20260504045929 | 10 | 90 | 1.6 | 4.8 | 0.00 | 0.00 | 0.00 | 76 | 1012.7 |
| 20260504045829 | 10 | 103 | 1.6 | 4.8 | 0.00 | 0.00 | 0.00 | 76 | 1012.7 |
| 20260504045801 | 10 | 79 | 1.6 | 4.8 | 0.00 | 0.00 | 0.00 | 76 | 1012.7 |
| 20260504045728 | 10 | 79 | 1.6 | 4.8 | 0.00 | 0.00 | 0.00 | 77 | 1012.7 |
| 20260504045628 | 10 | 109 | 1.6 | 3.2 | 0.00 | 0.00 | 0.00 | 76 | 1012.7 |
| 20260504045533 | 10 | 109 | 1.6 | 4.8 | 0.00 | 0.00 | 0.00 | 76 | 1012.7 |
| 20260504045429 | 10 | 109 | 1.6 | 4.8 | 0.00 | 0.00 | 0.00 | 77 | 1012.8 |
| 20260504045329 | 10 | 112 | 1.6 | 4.8 | 0.00 | 0.00 | 0.00 | 76 | 1012.8 |
| 20260504045300 | 10 | 113 | 1.6 | 4.8 | 0.00 | 0.00 | 0.00 | 76 | 1012.8 |
| 20260504045229 | 10 | 113 | 1.6 | 4.8 | 0.00 | 0.00 | 0.00 | 76 | 1012.8 |
| 20260504045133 | 10 | 113 | 1.6 | 4.8 | 0.00 | 0.00 | 0.00 | 76 | 1012.8 |
| 20260504045029 | 10 | 113 | 1.6 | 4.8 | 0.00 | 0.00 | 0.00 | 76 | 1012.8 |
| 20260504044929 | 10 | 113 | 1.6 | 4.8 | 0.00 | 0.00 | 0.00 | 76 | 1012.8 |
| 20260504044801 | 10 | 113 | 1.6 | 4.8 | 0.00 | 0.00 | 0.00 | 76 | 1012.9 |
| 20260504044728 | 10 | 113 | 1.6 | 4.8 | 0.00 | 0.00 | 0.00 | 76 | 1012.9 |
| 20260504044630 | 10 | 114 | 1.6 | 4.8 | 0.00 | 0.00 | 0.00 | 76 | 1012.9 |
| 20260504044528 | 10 | 112 | 1.6 | 4.8 | 0.00 | 0.00 | 0.00 | 76 | 1012.8 |
| 20260504044428 | 10 | 115 | 1.6 | 4.8 | 0.00 | 0.00 | 0.00 | 77 | 1012.8 |
| 20260504044329 | 10 | 115 | 1.6 | 4.8 | 0.00 | 0.00 | 0.00 | 76 | 1012.8 |
| 20260504044300 | 10 | 113 | 1.6 | 4.8 | 0.00 | 0.00 | 0.00 | 76 | 1012.8 |
| 20260504044229 | 10 | 117 | 1.6 | 4.8 | 0.00 | 0.00 | 0.00 | 76 | 1012.8 |
| 20260504044129 | 10 | 107 | 1.6 | 4.8 | 0.00 | 0.00 | 0.00 | 76 | 1012.8 |
| 20260504044029 | 10 | 107 | 1.6 | 4.8 | 0.00 | 0.00 | 0.00 | 77 | 1012.8 |
| 20260504043929 | 10 | 96 | 0.0 | 4.8 | 0.00 | 0.00 | 0.00 | 76 | 1012.8 |
| 20260504043801 | 10 | 92 | 0.0 | 3.2 | 0.00 | 0.00 | 0.00 | 76 | 1012.8 |
| 20260504043728 | 10 | 92 | 0.0 | 3.2 | 0.00 | 0.00 | 0.00 | 76 | 1012.8 |
| 20260504043628 | 10 | 92 | 0.0 | 1.6 | 0.00 | 0.00 | 0.00 | 76 | 1012.8 |
| 20260504043528 | 10 | 92 | 0.0 | 1.6 | 0.00 | 0.00 | 0.00 | 76 | 1012.8 |
| 20260504043428 | 10 | 92 | 0.0 | 3.2 | 0.00 | 0.00 | 0.00 | 76 | 1012.8 |
| 20260504043300 | 10 | 92 | 0.0 | 3.2 | 0.00 | 0.00 | 0.00 | 76 | 1012.8 |
| 20260504043228 | 10 | 92 | 0.0 | 3.2 | 0.00 | 0.00 | 0.00 | 76 | 1012.8 |
| 20260504043129 | 10 | 92 | 0.0 | 4.8 | 0.00 | 0.00 | 0.00 | 76 | 1012.8 |
| 20260504043029 | 10 | 92 | 1.6 | 4.8 | 0.00 | 0.00 | 0.00 | 76 | 1012.8 |
| 20260504042929 | 10 | 92 | 1.6 | 4.8 | 0.00 | 0.00 | 0.00 | 76 | 1012.8 |
| 20260504042800 | 10 | 92 | 1.6 | 4.8 | 0.00 | 0.00 | 0.00 | 76 | 1012.8 |
| 20260504042729 | 10 | 92 | 1.6 | 4.8 | 0.00 | 0.00 | 0.00 | 76 | 1012.8 |
| 20260504042628 | 10 | 92 | 1.6 | 4.8 | 0.00 | 0.00 | 0.00 | 76 | 1012.8 |
| 20260504042529 | 10 | 92 | 1.6 | 4.8 | 0.00 | 0.00 | 0.00 | 76 | 1012.8 |
| 20260504042428 | 10 | 92 | 1.6 | 4.8 | 0.00 | 0.00 | 0.00 | 76 | 1012.8 |
| 20260504042301 | 10 | 91 | 1.6 | 4.8 | 0.00 | 0.00 | 0.00 | 75 | 1012.8 |
| 20260504042228 | 10 | 91 | 1.6 | 4.8 | 0.00 | 0.00 | 0.00 | 76 | 1012.8 |
| 20260504042129 | 10 | 85 | 0.0 | 3.2 | 0.00 | 0.00 | 0.00 | 75 | 1012.8 |
| 20260504042029 | 10 | 83 | 0.0 | 3.2 | 0.00 | 0.00 | 0.00 | 75 | 1012.8 |
| 20260504041928 | 10 | 82 | 0.0 | 3.2 | 0.00 | 0.00 | 0.00 | 75 | 1012.8 |
| 20260504041801 | 10 | 81 | 0.0 | 3.2 | 0.00 | 0.00 | 0.00 | 75 | 1012.8 |
| 20260504041728 | 10 | 80 | 0.0 | 4.8 | 0.00 | 0.00 | 0.00 | 75 | 1012.8 |
| 20260504041628 | 10 | 80 | 0.0 | 4.8 | 0.00 | 0.00 | 0.00 | 75 | 1012.8 |
| 20260504041528 | 10 | 80 | 0.0 | 4.8 | 0.00 | 0.00 | 0.00 | 75 | 1012.9 |
| 20260504041429 | 10 | 80 | 1.6 | 4.8 | 0.00 | 0.00 | 0.00 | 75 | 1012.9 |
| 20260504041300 | 10 | 80 | 1.6 | 4.8 | 0.00 | 0.00 | 0.00 | 75 | 1012.8 |
| 20260504041229 | 10 | 80 | 1.6 | 4.8 | 0.00 | 0.00 | 0.00 | 75 | 1012.9 |
| 20260504041128 | 10 | 80 | 1.6 | 4.8 | 0.00 | 0.00 | 0.00 | 75 | 1012.9 |
| 20260504041028 | 10 | 80 | 1.6 | 4.8 | 0.00 | 0.00 | 0.00 | 75 | 1012.8 |
| 20260504040928 | 10 | 80 | 1.6 | 4.8 | 0.00 | 0.00 | 0.00 | 75 | 1012.8 |
| 20260504040800 | 10 | 80 | 0.0 | 4.8 | 0.00 | 0.00 | 0.00 | 75 | 1012.9 |
| 20260504040729 | 10 | 78 | 0.0 | 4.8 | 0.00 | 0.00 | 0.00 | 75 | 1012.8 |
| 20260504040629 | 10 | 92 | 0.0 | 3.2 | 0.00 | 0.00 | 0.00 | 74 | 1012.9 |
| 20260504040528 | 10 | 103 | 0.0 | 3.2 | 0.00 | 0.00 | 0.00 | 75 | 1012.8 |
| 20260504040428 | 10 | 94 | 0.0 | 3.2 | 0.00 | 0.00 | 0.00 | 75 | 1012.9 |
| 20260504040328 | 10 | 90 | 0.0 | 3.2 | 0.00 | 0.00 | 0.00 | 75 | 1012.9 |
| 20260504040301 | 10 | 88 | 0.0 | 3.2 | 0.00 | 0.00 | 0.00 | 74 | 1012.9 |
| 20260504040228 | 10 | 88 | 0.0 | 3.2 | 0.00 | 0.00 | 0.00 | 74 | 1012.9 |
| 20260504040129 | 10 | 88 | 0.0 | 4.8 | 0.00 | 0.00 | 0.00 | 74 | 1012.9 |
| 20260504040028 | 10 | 88 | 0.0 | 4.8 | 0.00 | 0.00 | 0.00 | 74 | 1012.9 |
| 20260504035928 | 10 | 88 | 0.0 | 4.8 | 0.00 | 0.00 | 0.00 | 74 | 1012.9 |
| 20260504035800 | 10 | 88 | 0.0 | 4.8 | 0.00 | 0.00 | 0.00 | 74 | 1012.9 |
| 20260504035729 | 10 | 88 | 0.0 | 4.8 | 0.00 | 0.00 | 0.00 | 74 | 1012.9 |
| 20260504035629 | 11 | 89 | 0.0 | 4.8 | 0.00 | 0.00 | 0.00 | 74 | 1013.0 |
| 20260504035528 | 11 | 86 | 1.6 | 4.8 | 0.00 | 0.00 | 0.00 | 74 | 1012.9 |
| 20260504035428 | 11 | 85 | 1.6 | 4.8 | 0.00 | 0.00 | 0.00 | 74 | 1012.9 |
| 20260504035328 | 11 | 86 | 1.6 | 4.8 | 0.00 | 0.00 | 0.00 | 74 | 1012.9 |
| 20260504035301 | 11 | 85 | 1.6 | 4.8 | 0.00 | 0.00 | 0.00 | 74 | 1012.9 |
| 20260504035228 | 11 | 85 | 0.0 | 4.8 | 0.00 | 0.00 | 0.00 | 74 | 1012.9 |
| 20260504035128 | 11 | 106 | 0.0 | 3.2 | 0.00 | 0.00 | 0.00 | 74 | 1013.0 |
| 20260504035029 | 11 | 106 | 0.0 | 3.2 | 0.00 | 0.00 | 0.00 | 74 | 1013.0 |
| 20260504035016 | 11 | 104 | 0.0 | 3.2 | 0.00 | 0.00 | 0.00 | 74 | 1013.0 |
| 20260504035011 | 11 | 104 | 0.0 | 3.2 | 0.00 | 0.00 | 0.00 | 73 | 1013.0 |
| 20260504034729 | 11 | 104 | 1.6 | 3.2 | 0.00 | 0.00 | 0.00 | 73 | 1013.0 |
| 20260504034629 | 11 | 104 | 0.0 | 3.2 | 0.00 | 0.00 | 0.00 | 73 | 1013.1 |
| 20260504034600 | 11 | 105 | 0.0 | 3.2 | 0.00 | 0.00 | 0.00 | 73 | 1013.1 |
| 20260504034429 | 11 | 105 | 0.0 | 3.2 | 0.00 | 0.00 | 0.00 | 73 | 1013.1 |
| 20260504034300 | 11 | 105 | 0.0 | 3.2 | 0.00 | 0.00 | 0.00 | 73 | 1013.0 |
| 20260504034228 | 11 | 105 | 0.0 | 3.2 | 0.00 | 0.00 | 0.00 | 73 | 1013.0 |
| 20260504034128 | 11 | 104 | 0.0 | 3.2 | 0.00 | 0.00 | 0.00 | 73 | 1013.1 |
| 20260504034028 | 11 | 105 | 0.0 | 3.2 | 0.00 | 0.00 | 0.00 | 73 | 1013.1 |
| 20260504033928 | 11 | 105 | 0.0 | 3.2 | 0.00 | 0.00 | 0.00 | 73 | 1013.0 |
| 20260504033800 | 11 | 105 | 0.0 | 3.2 | 0.00 | 0.00 | 0.00 | 73 | 1013.1 |
| 20260504033753 | 11 | 105 | 1.6 | 4.8 | 0.00 | 0.00 | 0.00 | 72 | 1013.0 |
| 20260504033748 | 11 | 105 | 0.0 | 3.2 | 0.00 | 0.00 | 0.00 | 73 | 1013.0 |
| 20260504033744 | 11 | 105 | 0.0 | 3.2 | 0.00 | 0.00 | 0.00 | 73 | 1013.0 |
| 20260504033736 | 11 | 105 | 0.0 | 3.2 | 0.00 | 0.00 | 0.00 | 73 | 1013.0 |
| 20260504033517 | 11 | 105 | 0.0 | 3.2 | 0.00 | 0.00 | 0.00 | 73 | 1013.0 |
| 20260504033512 | 11 | 105 | 1.6 | 4.8 | 0.00 | 0.00 | 0.00 | 73 | 1013.0 |
| 20260504033228 | 11 | 105 | 1.6 | 4.8 | 0.00 | 0.00 | 0.00 | 72 | 1013.0 |
| 20260504033128 | 11 | 105 | 1.6 | 4.8 | 0.00 | 0.00 | 0.00 | 72 | 1013.0 |
| 20260504033029 | 11 | 105 | 1.6 | 4.8 | 0.00 | 0.00 | 0.00 | 72 | 1013.0 |
| 20260504033016 | 11 | 105 | 1.6 | 4.8 | 0.00 | 0.00 | 0.00 | 72 | 1013.0 |
| 20260504033011 | 11 | 105 | 1.6 | 4.8 | 0.00 | 0.00 | 0.00 | 72 | 1013.0 |
| 20260504032728 | 11 | 105 | 1.6 | 4.8 | 0.00 | 0.00 | 0.00 | 72 | 1013.0 |
| 20260504032628 | 11 | 105 | 1.6 | 4.8 | 0.00 | 0.00 | 0.00 | 72 | 1013.0 |
| 20260504032528 | 11 | 105 | 1.6 | 4.8 | 0.00 | 0.00 | 0.00 | 72 | 1013.0 |
| 20260504032428 | 11 | 105 | 1.6 | 4.8 | 0.00 | 0.00 | 0.00 | 72 | 1013.0 |
| 20260504032329 | 11 | 109 | 1.6 | 4.8 | 0.00 | 0.00 | 0.00 | 72 | 1013.0 |
| 20260504032300 | 11 | 105 | 1.6 | 4.8 | 0.00 | 0.00 | 0.00 | 72 | 1013.0 |
| 20260504032229 | 11 | 102 | 1.6 | 4.8 | 0.00 | 0.00 | 0.00 | 72 | 1013.0 |
| 20260504032129 | 11 | 102 | 1.6 | 4.8 | 0.00 | 0.00 | 0.00 | 72 | 1013.0 |
| 20260504032029 | 11 | 98 | 1.6 | 4.8 | 0.00 | 0.00 | 0.00 | 72 | 1013.0 |
| 20260504031929 | 11 | 97 | 1.6 | 3.2 | 0.00 | 0.00 | 0.00 | 72 | 1013.0 |
| 20260504031800 | 11 | 97 | 0.0 | 3.2 | 0.00 | 0.00 | 0.00 | 72 | 1013.0 |
| 20260504031728 | 11 | 96 | 0.0 | 3.2 | 0.00 | 0.00 | 0.00 | 72 | 1013.0 |
| 20260504031628 | 11 | 96 | 1.6 | 3.2 | 0.00 | 0.00 | 0.00 | 72 | 1013.0 |
| 20260504031528 | 11 | 96 | 0.0 | 3.2 | 0.00 | 0.00 | 0.00 | 72 | 1013.0 |
| 20260504031428 | 11 | 97 | 0.0 | 3.2 | 0.00 | 0.00 | 0.00 | 72 | 1013.0 |
| 20260504031302 | 11 | 96 | 1.6 | 3.2 | 0.00 | 0.00 | 0.00 | 72 | 1013.0 |
| 20260504031229 | 11 | 96 | 1.6 | 3.2 | 0.00 | 0.00 | 0.00 | 72 | 1013.0 |
| 20260504031129 | 11 | 96 | 0.0 | 3.2 | 0.00 | 0.00 | 0.00 | 72 | 1013.0 |
| 20260504031029 | 11 | 96 | 0.0 | 3.2 | 0.00 | 0.00 | 0.00 | 72 | 1013.0 |
| 20260504030929 | 11 | 96 | 0.0 | 3.2 | 0.00 | 0.00 | 0.00 | 72 | 1013.0 |
| 20260504030801 | 11 | 96 | 0.0 | 3.2 | 0.00 | 0.00 | 0.00 | 72 | 1013.0 |
| 20260504030730 | 11 | 96 | 0.0 | 3.2 | 0.00 | 0.00 | 0.00 | 72 | 1012.9 |
| 20260504030629 | 11 | 96 | 0.0 | 3.2 | 0.00 | 0.00 | 0.00 | 72 | 1013.0 |
| 20260504030529 | 11 | 96 | 0.0 | 3.2 | 0.00 | 0.00 | 0.00 | 72 | 1013.0 |
| 20260504030429 | 11 | 96 | 0.0 | 3.2 | 0.00 | 0.00 | 0.00 | 72 | 1013.1 |
| 20260504030301 | 11 | 96 | 0.0 | 3.2 | 0.00 | 0.00 | 0.00 | 72 | 1013.1 |
| 20260504030229 | 11 | 96 | 0.0 | 3.2 | 0.00 | 0.00 | 0.00 | 72 | 1013.1 |
| 20260504030129 | 11 | 96 | 0.0 | 3.2 | 0.00 | 0.00 | 0.00 | 72 | 1013.1 |
| 20260504030033 | 11 | 96 | 0.0 | 3.2 | 0.00 | 0.00 | 0.00 | 73 | 1013.1 |
| 20260504025929 | 11 | 96 | 0.0 | 3.2 | 0.00 | 0.00 | 0.00 | 72 | 1013.1 |
| 20260504025829 | 11 | 96 | 0.0 | 3.2 | 0.00 | 0.00 | 0.00 | 72 | 1013.1 |
| 20260504025801 | 11 | 96 | 0.0 | 3.2 | 0.00 | 0.00 | 0.00 | 73 | 1013.1 |
| 20260504025729 | 11 | 101 | 1.6 | 3.2 | 0.00 | 0.00 | 0.00 | 73 | 1013.1 |
| 20260504025629 | 11 | 100 | 1.6 | 3.2 | 0.00 | 0.00 | 0.00 | 73 | 1013.1 |
| 20260504025530 | 11 | 100 | 1.6 | 4.8 | 0.00 | 0.00 | 0.00 | 73 | 1013.1 |
| 20260504025429 | 11 | 100 | 1.6 | 4.8 | 0.00 | 0.00 | 0.00 | 73 | 1013.0 |
| 20260504025301 | 11 | 100 | 1.6 | 4.8 | 0.00 | 0.00 | 0.00 | 73 | 1013.1 |
| 20260504025251 | 11 | 98 | 1.6 | 4.8 | 0.00 | 0.00 | 0.00 | 73 | 1013.1 |
| 20260504025243 | 11 | 100 | 1.6 | 4.8 | 0.00 | 0.00 | 0.00 | 73 | 1013.1 |
| 20260504025239 | 11 | 100 | 1.6 | 4.8 | 0.00 | 0.00 | 0.00 | 73 | 1013.1 |
| 20260504025235 | 11 | 100 | 1.6 | 4.8 | 0.00 | 0.00 | 0.00 | 73 | 1013.1 |
| 20260504025015 | 11 | 100 | 1.6 | 4.8 | 0.00 | 0.00 | 0.00 | 73 | 1013.1 |
| 20260504025011 | 11 | 98 | 1.6 | 4.8 | 0.00 | 0.00 | 0.00 | 73 | 1013.1 |
| 20260504024728 | 11 | 98 | 1.6 | 4.8 | 0.00 | 0.00 | 0.00 | 73 | 1013.1 |
| 20260504024628 | 11 | 98 | 1.6 | 4.8 | 0.00 | 0.00 | 0.00 | 73 | 1013.1 |
| 20260504024529 | 11 | 105 | 1.6 | 3.2 | 0.00 | 0.00 | 0.00 | 73 | 1013.0 |
| 20260504024428 | 11 | 106 | 1.6 | 3.2 | 0.00 | 0.00 | 0.00 | 73 | 1013.1 |
| 20260504024327 | 11 | 106 | 1.6 | 3.2 | 0.00 | 0.00 | 0.00 | 73 | 1013.0 |
| 20260504024302 | 11 | 107 | 1.6 | 3.2 | 0.00 | 0.00 | 0.00 | 73 | 1013.0 |
| 20260504024226 | 11 | 107 | 1.6 | 3.2 | 0.00 | 0.00 | 0.00 | 73 | 1013.1 |
| 20260504024126 | 11 | 107 | 1.6 | 3.2 | 0.00 | 0.00 | 0.00 | 73 | 1013.1 |
| 20260504024028 | 11 | 107 | 1.6 | 3.2 | 0.00 | 0.00 | 0.00 | 73 | 1013.1 |
| 20260504023924 | 11 | 107 | 1.6 | 3.2 | 0.00 | 0.00 | 0.00 | 73 | 1013.2 |
| 20260504023801 | 11 | 107 | 1.6 | 3.2 | 0.00 | 0.00 | 0.00 | 73 | 1013.2 |
| 20260504023723 | 11 | 107 | 1.6 | 3.2 | 0.00 | 0.00 | 0.00 | 73 | 1013.2 |
| 20260504023621 | 11 | 107 | 1.6 | 3.2 | 0.00 | 0.00 | 0.00 | 73 | 1013.2 |
| 20260504023520 | 11 | 107 | 1.6 | 3.2 | 0.00 | 0.00 | 0.00 | 73 | 1013.2 |
| 20260504023418 | 11 | 107 | 1.6 | 3.2 | 0.00 | 0.00 | 0.00 | 73 | 1013.2 |
| 20260504023301 | 11 | 107 | 1.6 | 3.2 | 0.00 | 0.00 | 0.00 | 73 | 1013.2 |
| 20260504023216 | 11 | 107 | 1.6 | 3.2 | 0.00 | 0.00 | 0.00 | 73 | 1013.3 |
| 20260504023114 | 11 | 107 | 1.6 | 3.2 | 0.00 | 0.00 | 0.00 | 73 | 1013.3 |
| 20260504023014 | 11 | 107 | 1.6 | 3.2 | 0.00 | 0.00 | 0.00 | 73 | 1013.3 |
| 20260504022912 | 11 | 107 | 1.6 | 3.2 | 0.00 | 0.00 | 0.00 | 73 | 1013.3 |
| 20260504022800 | 11 | 107 | 1.6 | 3.2 | 0.00 | 0.00 | 0.00 | 73 | 1013.2 |
| 20260504022709 | 11 | 107 | 1.6 | 3.2 | 0.00 | 0.00 | 0.00 | 74 | 1013.2 |
| 20260504022608 | 11 | 107 | 1.6 | 3.2 | 0.00 | 0.00 | 0.00 | 74 | 1013.3 |
| 20260504022512 | 11 | 107 | 1.6 | 3.2 | 0.00 | 0.00 | 0.00 | 74 | 1013.3 |
| 20260504022406 | 11 | 106 | 1.6 | 3.2 | 0.00 | 0.00 | 0.00 | 74 | 1013.3 |
| 20260504022301 | 11 | 106 | 1.6 | 3.2 | 0.00 | 0.00 | 0.00 | 74 | 1013.3 |
| 20260504022253 | 11 | 107 | 0.0 | 3.2 | 0.00 | 0.00 | 0.00 | 74 | 1013.2 |
| 20260504022240 | 11 | 107 | 0.0 | 3.2 | 0.00 | 0.00 | 0.00 | 74 | 1013.3 |
| 20260504022236 | 11 | 107 | 0.0 | 3.2 | 0.00 | 0.00 | 0.00 | 74 | 1013.3 |
| 20260504022021 | 11 | 106 | 0.0 | 3.2 | 0.00 | 0.00 | 0.00 | 74 | 1013.3 |
| 20260504022013 | 11 | 106 | 0.0 | 3.2 | 0.00 | 0.00 | 0.00 | 74 | 1013.3 |
| 20260504022009 | 11 | 107 | 0.0 | 3.2 | 0.00 | 0.00 | 0.00 | 74 | 1013.2 |
| 20260504021704 | 11 | 106 | 0.0 | 3.2 | 0.00 | 0.00 | 0.00 | 74 | 1013.2 |
| 20260504021604 | 11 | 111 | 0.0 | 3.2 | 0.00 | 0.00 | 0.00 | 75 | 1013.2 |
| 20260504021510 | 11 | 113 | 0.0 | 3.2 | 0.00 | 0.00 | 0.00 | 74 | 1013.2 |
| 20260504021401 | 11 | 113 | 0.0 | 3.2 | 0.00 | 0.00 | 0.00 | 74 | 1013.3 |
| 20260504021301 | 11 | 115 | 0.0 | 1.6 | 0.00 | 0.00 | 0.00 | 74 | 1013.3 |
| 20260504021252 | 11 | 115 | 0.0 | 1.6 | 0.00 | 0.00 | 0.00 | 74 | 1013.3 |
| 20260504021201 | 11 | 115 | 0.0 | 1.6 | 0.00 | 0.00 | 0.00 | 75 | 1013.3 |
| 20260504021101 | 11 | 115 | 0.0 | 1.6 | 0.00 | 0.00 | 0.00 | 75 | 1013.3 |
| 20260504021013 | 10 | 114 | 0.0 | 1.6 | 0.00 | 0.00 | 0.00 | 75 | 1013.2 |
| 20260504021009 | 11 | 115 | 0.0 | 1.6 | 0.00 | 0.00 | 0.00 | 75 | 1013.3 |
| 20260504021001 | 10 | 115 | 0.0 | 1.6 | 0.00 | 0.00 | 0.00 | 75 | 1013.3 |
| 20260504020957 | 10 | 114 | 0.0 | 1.6 | 0.00 | 0.00 | 0.00 | 75 | 1013.3 |
| 20260504020702 | 10 | 115 | 0.0 | 1.6 | 0.00 | 0.00 | 0.00 | 75 | 1013.2 |
| 20260504020601 | 10 | 117 | 0.0 | 3.2 | 0.00 | 0.00 | 0.00 | 75 | 1013.2 |
| 20260504020506 | 10 | 120 | 0.0 | 3.2 | 0.00 | 0.00 | 0.00 | 75 | 1013.3 |
| 20260504020401 | 10 | 120 | 0.0 | 3.2 | 0.00 | 0.00 | 0.00 | 75 | 1013.2 |
| 20260504020301 | 10 | 120 | 0.0 | 3.2 | 0.00 | 0.00 | 0.00 | 75 | 1013.3 |
| 20260504020239 | 10 | 121 | 0.0 | 3.2 | 0.00 | 0.00 | 0.00 | 75 | 1013.3 |
| 20260504020201 | 10 | 122 | 0.0 | 3.2 | 0.00 | 0.00 | 0.00 | 75 | 1013.3 |
| 20260504020100 | 10 | 122 | 0.0 | 3.2 | 0.00 | 0.00 | 0.00 | 75 | 1013.3 |
| 20260504020004 | 10 | 122 | 1.6 | 3.2 | 0.00 | 0.00 | 0.00 | 76 | 1013.3 |
| 20260504015901 | 10 | 122 | 1.6 | 3.2 | 0.00 | 0.00 | 0.00 | 76 | 1013.3 |
| 20260504015801 | 10 | 122 | 1.6 | 3.2 | 0.00 | 0.00 | 0.00 | 76 | 1013.3 |
| 20260504015740 | 10 | 122 | 1.6 | 3.2 | 0.00 | 0.00 | 0.00 | 76 | 1013.4 |
| 20260504015701 | 10 | 123 | 1.6 | 3.2 | 0.00 | 0.00 | 0.00 | 76 | 1013.4 |
| 20260504015600 | 10 | 124 | 1.6 | 3.2 | 0.00 | 0.00 | 0.00 | 76 | 1013.4 |
| 20260504015501 | 10 | 124 | 1.6 | 3.2 | 0.00 | 0.00 | 0.00 | 76 | 1013.4 |
| 20260504015400 | 10 | 124 | 1.6 | 3.2 | 0.00 | 0.00 | 0.00 | 76 | 1013.4 |
| 20260504015300 | 10 | 124 | 1.6 | 3.2 | 0.00 | 0.00 | 0.00 | 76 | 1013.4 |
| 20260504015238 | 10 | 124 | 1.6 | 3.2 | 0.00 | 0.00 | 0.00 | 76 | 1013.4 |
| 20260504015200 | 10 | 124 | 1.6 | 3.2 | 0.00 | 0.00 | 0.00 | 76 | 1013.4 |
| 20260504015101 | 10 | 124 | 1.6 | 3.2 | 0.00 | 0.00 | 0.00 | 76 | 1013.4 |
| 20260504015001 | 10 | 124 | 1.6 | 3.2 | 0.00 | 0.00 | 0.00 | 76 | 1013.3 |
| 20260504014901 | 10 | 124 | 1.6 | 3.2 | 0.00 | 0.00 | 0.00 | 76 | 1013.3 |
| 20260504014736 | 10 | 124 | 1.6 | 3.2 | 0.00 | 0.00 | 0.00 | 76 | 1013.3 |
| 20260504014658 | 10 | 124 | 1.6 | 3.2 | 0.00 | 0.00 | 0.00 | 76 | 1013.3 |
| 20260504014558 | 10 | 124 | 0.0 | 3.2 | 0.00 | 0.00 | 0.00 | 76 | 1013.4 |
| 20260504014458 | 10 | 124 | 0.0 | 3.2 | 0.00 | 0.00 | 0.00 | 76 | 1013.4 |
| 20260504014357 | 10 | 124 | 0.0 | 3.2 | 0.00 | 0.00 | 0.00 | 76 | 1013.3 |
| 20260504014234 | 10 | 124 | 0.0 | 3.2 | 0.00 | 0.00 | 0.00 | 76 | 1013.3 |
| 20260504014156 | 10 | 124 | 0.0 | 3.2 | 0.00 | 0.00 | 0.00 | 76 | 1013.3 |
| 20260504014056 | 10 | 124 | 1.6 | 3.2 | 0.00 | 0.00 | 0.00 | 76 | 1013.3 |
| 20260504013955 | 10 | 124 | 1.6 | 3.2 | 0.00 | 0.00 | 0.00 | 75 | 1013.3 |
| 20260504013851 | 10 | 124 | 1.6 | 3.2 | 0.00 | 0.00 | 0.00 | 75 | 1013.3 |
| 20260504013748 | 10 | 124 | 1.6 | 3.2 | 0.00 | 0.00 | 0.00 | 75 | 1013.3 |
| 20260504013732 | 10 | 125 | 1.6 | 3.2 | 0.00 | 0.00 | 0.00 | 75 | 1013.3 |
| 20260504013646 | 10 | 124 | 1.6 | 3.2 | 0.00 | 0.00 | 0.00 | 75 | 1013.4 |
| 20260504013546 | 10 | 124 | 1.6 | 3.2 | 0.00 | 0.00 | 0.00 | 75 | 1013.4 |
| 20260504013446 | 10 | 125 | 1.6 | 3.2 | 0.00 | 0.00 | 0.00 | 75 | 1013.4 |
| 20260504013345 | 10 | 124 | 1.6 | 3.2 | 0.00 | 0.00 | 0.00 | 75 | 1013.4 |
| 20260504013244 | 10 | 125 | 1.6 | 3.2 | 0.00 | 0.00 | 0.00 | 75 | 1013.4 |
| 20260504013232 | 10 | 125 | 1.6 | 3.2 | 0.00 | 0.00 | 0.00 | 74 | 1013.4 |
| 20260504013144 | 11 | 125 | 1.6 | 3.2 | 0.00 | 0.00 | 0.00 | 75 | 1013.4 |
| 20260504013044 | 11 | 125 | 1.6 | 3.2 | 0.00 | 0.00 | 0.00 | 75 | 1013.4 |
| 20260504012942 | 11 | 125 | 1.6 | 3.2 | 0.00 | 0.00 | 0.00 | 74 | 1013.4 |
| 20260504012840 | 11 | 125 | 1.6 | 3.2 | 0.00 | 0.00 | 0.00 | 74 | 1013.4 |
| 20260504012733 | 11 | 125 | 1.6 | 3.2 | 0.00 | 0.00 | 0.00 | 74 | 1013.4 |
| 20260504012638 | 11 | 125 | 1.6 | 3.2 | 0.00 | 0.00 | 0.00 | 74 | 1013.4 |
| 20260504012536 | 11 | 125 | 1.6 | 3.2 | 0.00 | 0.00 | 0.00 | 74 | 1013.4 |
| 20260504012451 | 11 | 125 | 1.6 | 3.2 | 0.00 | 0.00 | 0.00 | 74 | 1013.4 |
| 20260504012447 | 11 | 125 | 1.6 | 3.2 | 0.00 | 0.00 | 0.00 | 74 | 1013.4 |
| 20260504012443 | 11 | 125 | 1.6 | 3.2 | 0.00 | 0.00 | 0.00 | 74 | 1013.3 |
| 20260504012134 | 11 | 125 | 0.0 | 3.2 | 0.00 | 0.00 | 0.00 | 74 | 1013.3 |
| 20260504012032 | 11 | 125 | 0.0 | 3.2 | 0.00 | 0.00 | 0.00 | 74 | 1013.3 |
| 20260504011930 | 11 | 125 | 0.0 | 3.2 | 0.00 | 0.00 | 0.00 | 74 | 1013.3 |
| 20260504011830 | 11 | 125 | 0.0 | 3.2 | 0.00 | 0.00 | 0.00 | 74 | 1013.3 |
| 20260504011730 | 11 | 125 | 0.0 | 3.2 | 0.00 | 0.00 | 0.00 | 74 | 1013.3 |
| 20260504011629 | 11 | 125 | 0.0 | 3.2 | 0.00 | 0.00 | 0.00 | 74 | 1013.3 |
| 20260504011529 | 11 | 125 | 0.0 | 3.2 | 0.00 | 0.00 | 0.00 | 74 | 1013.3 |
| 20260504011429 | 11 | 125 | 0.0 | 3.2 | 0.00 | 0.00 | 0.00 | 74 | 1013.3 |
| 20260504011329 | 11 | 125 | 0.0 | 3.2 | 0.00 | 0.00 | 0.00 | 74 | 1013.3 |
| 20260504011229 | 11 | 125 | 1.6 | 3.2 | 0.00 | 0.00 | 0.00 | 73 | 1013.3 |
| 20260504011129 | 11 | 125 | 1.6 | 3.2 | 0.00 | 0.00 | 0.00 | 73 | 1013.3 |
| 20260504011029 | 11 | 125 | 1.6 | 3.2 | 0.00 | 0.00 | 0.00 | 73 | 1013.3 |
| 20260504010929 | 11 | 125 | 1.6 | 3.2 | 0.00 | 0.00 | 0.00 | 73 | 1013.3 |
| 20260504010829 | 11 | 125 | 1.6 | 3.2 | 0.00 | 0.00 | 0.00 | 73 | 1013.3 |
| 20260504010729 | 11 | 125 | 1.6 | 3.2 | 0.00 | 0.00 | 0.00 | 73 | 1013.3 |
| 20260504010629 | 11 | 125 | 1.6 | 3.2 | 0.00 | 0.00 | 0.00 | 73 | 1013.3 |
| 20260504010529 | 11 | 125 | 1.6 | 3.2 | 0.00 | 0.00 | 0.00 | 73 | 1013.3 |
| 20260504010429 | 11 | 125 | 1.6 | 3.2 | 0.00 | 0.00 | 0.00 | 73 | 1013.3 |
| 20260504010329 | 11 | 125 | 1.6 | 3.2 | 0.00 | 0.00 | 0.00 | 73 | 1013.3 |
| 20260504010229 | 11 | 125 | 1.6 | 3.2 | 0.00 | 0.00 | 0.00 | 73 | 1013.3 |
| 20260504010129 | 11 | 125 | 0.0 | 3.2 | 0.00 | 0.00 | 0.00 | 73 | 1013.3 |
| 20260504010029 | 11 | 124 | 0.0 | 3.2 | 0.00 | 0.00 | 0.00 | 73 | 1013.3 |
| 20260504005928 | 11 | 124 | 0.0 | 1.6 | 0.00 | 0.00 | 0.00 | 73 | 1013.3 |
| 20260504005829 | 11 | 124 | 0.0 | 3.2 | 0.00 | 0.00 | 0.00 | 73 | 1013.3 |
| 20260504005729 | 11 | 124 | 1.6 | 3.2 | 0.00 | 0.00 | 0.00 | 73 | 1013.3 |
| 20260504005629 | 11 | 124 | 1.6 | 3.2 | 0.00 | 0.00 | 0.00 | 73 | 1013.3 |
| 20260504005529 | 11 | 124 | 1.6 | 3.2 | 0.00 | 0.00 | 0.00 | 73 | 1013.3 |
| 20260504005429 | 11 | 124 | 1.6 | 3.2 | 0.00 | 0.00 | 0.00 | 73 | 1013.3 |
| 20260504005329 | 11 | 124 | 1.6 | 3.2 | 0.00 | 0.00 | 0.00 | 73 | 1013.3 |
| 20260504005229 | 11 | 124 | 1.6 | 3.2 | 0.00 | 0.00 | 0.00 | 72 | 1013.3 |
| 20260504005128 | 11 | 124 | 1.6 | 3.2 | 0.00 | 0.00 | 0.00 | 72 | 1013.3 |
| 20260504005028 | 11 | 124 | 1.6 | 3.2 | 0.00 | 0.00 | 0.00 | 72 | 1013.3 |
| 20260504004933 | 11 | 124 | 1.6 | 3.2 | 0.00 | 0.00 | 0.00 | 72 | 1013.3 |
| 20260504004828 | 11 | 124 | 0.0 | 3.2 | 0.00 | 0.00 | 0.00 | 72 | 1013.3 |
| 20260504004727 | 11 | 124 | 0.0 | 3.2 | 0.00 | 0.00 | 0.00 | 72 | 1013.3 |
| 20260504004628 | 11 | 124 | 0.0 | 3.2 | 0.00 | 0.00 | 0.00 | 73 | 1013.4 |
| 20260504004528 | 11 | 124 | 0.0 | 3.2 | 0.00 | 0.00 | 0.00 | 72 | 1013.3 |
| 20260504004432 | 11 | 124 | 0.0 | 1.6 | 0.00 | 0.00 | 0.00 | 72 | 1013.3 |
| 20260504004328 | 11 | 124 | 0.0 | 1.6 | 0.00 | 0.00 | 0.00 | 72 | 1013.3 |
| 20260504004226 | 11 | 124 | 0.0 | 3.2 | 0.00 | 0.00 | 0.00 | 72 | 1013.3 |
| 20260504004126 | 11 | 124 | 0.0 | 3.2 | 0.00 | 0.00 | 0.00 | 72 | 1013.3 |
| 20260504004024 | 11 | 124 | 0.0 | 3.2 | 0.00 | 0.00 | 0.00 | 72 | 1013.3 |
| 20260504003955 | 11 | 124 | 0.0 | 3.2 | 0.00 | 0.00 | 0.00 | 72 | 1013.3 |
| 20260504003950 | 11 | 124 | 0.0 | 3.2 | 0.00 | 0.00 | 0.00 | 72 | 1013.3 |
| 20260504003942 | 11 | 124 | 0.0 | 3.2 | 0.00 | 0.00 | 0.00 | 72 | 1013.4 |
| 20260504003725 | 11 | 124 | 0.0 | 3.2 | 0.00 | 0.00 | 0.00 | 71 | 1013.5 |
| 20260504003716 | 11 | 124 | 0.0 | 3.2 | 0.00 | 0.00 | 0.00 | 72 | 1013.3 |
| 20260504003710 | 11 | 124 | 0.0 | 3.2 | 0.00 | 0.00 | 0.00 | 71 | 1013.3 |
| 20260504003706 | 11 | 124 | 0.0 | 3.2 | 0.00 | 0.00 | 0.00 | 71 | 1013.4 |
| 20260504003445 | 11 | 124 | 0.0 | 3.2 | 0.00 | 0.00 | 0.00 | 71 | 1013.4 |
| 20260504003441 | 11 | 124 | 0.0 | 3.2 | 0.00 | 0.00 | 0.00 | 71 | 1013.4 |
| 20260504003209 | 11 | 124 | 0.0 | 3.2 | 0.00 | 0.00 | 0.00 | 71 | 1013.5 |
| 20260504003110 | 11 | 124 | 0.0 | 3.2 | 0.00 | 0.00 | 0.00 | 71 | 1013.4 |
| 20260504003010 | 11 | 124 | 0.0 | 3.2 | 0.00 | 0.00 | 0.00 | 71 | 1013.5 |
| 20260504002909 | 11 | 124 | 0.0 | 1.6 | 0.00 | 0.00 | 0.00 | 71 | 1013.5 |
| 20260504002810 | 11 | 124 | 0.0 | 1.6 | 0.00 | 0.00 | 0.00 | 71 | 1013.5 |
| 20260504002708 | 11 | 124 | 0.0 | 1.6 | 0.00 | 0.00 | 0.00 | 71 | 1013.5 |
| 20260504002608 | 11 | 124 | 0.0 | 1.6 | 0.00 | 0.00 | 0.00 | 71 | 1013.5 |
| 20260504002506 | 11 | 124 | 0.0 | 1.6 | 0.00 | 0.00 | 0.00 | 71 | 1013.5 |
| 20260504002404 | 11 | 124 | 0.0 | 1.6 | 0.00 | 0.00 | 0.00 | 71 | 1013.5 |
| 20260504002303 | 11 | 124 | 0.0 | 1.6 | 0.00 | 0.00 | 0.00 | 72 | 1013.5 |
| 20260504002229 | 11 | 124 | 0.0 | 1.6 | 0.00 | 0.00 | 0.00 | 72 | 1013.6 |
| 20260504002102 | 11 | 124 | 0.0 | 3.2 | 0.00 | 0.00 | 0.00 | 72 | 1013.6 |
| 20260504002002 | 11 | 124 | 0.0 | 4.8 | 0.00 | 0.00 | 0.00 | 71 | 1013.6 |
| 20260504001902 | 11 | 124 | 0.0 | 4.8 | 0.00 | 0.00 | 0.00 | 71 | 1013.6 |
| 20260504001802 | 11 | 124 | 0.0 | 4.8 | 0.00 | 0.00 | 0.00 | 71 | 1013.6 |
| 20260504001701 | 11 | 124 | 0.0 | 4.8 | 0.00 | 0.00 | 0.00 | 71 | 1013.6 |
| 20260504001601 | 11 | 128 | 0.0 | 4.8 | 0.00 | 0.00 | 0.00 | 71 | 1013.6 |
| 20260504001501 | 11 | 129 | 0.0 | 4.8 | 0.00 | 0.00 | 0.00 | 71 | 1013.7 |
| 20260504001401 | 11 | 130 | 0.0 | 4.8 | 0.00 | 0.00 | 0.00 | 71 | 1013.7 |
| 20260504001301 | 11 | 129 | 0.0 | 4.8 | 0.00 | 0.00 | 0.00 | 70 | 1013.7 |
| 20260504001201 | 11 | 129 | 0.0 | 4.8 | 0.00 | 0.00 | 0.00 | 70 | 1013.6 |
| 20260504001101 | 11 | 129 | 0.0 | 4.8 | 0.00 | 0.00 | 0.00 | 70 | 1013.6 |
| 20260504001001 | 11 | 248 | 0.0 | 3.2 | 0.00 | 0.00 | 0.00 | 71 | 1013.6 |
| 20260504000901 | 11 | 263 | 0.0 | 1.6 | 0.00 | 0.00 | 0.00 | 70 | 1013.7 |
| 20260504000800 | 11 | 267 | 0.0 | 1.6 | 0.00 | 0.00 | 0.00 | 70 | 1013.7 |
| 20260504000701 | 11 | 267 | 0.0 | 1.6 | 0.00 | 0.00 | 0.00 | 70 | 1013.7 |
| 20260504000601 | 11 | 268 | 0.0 | 1.6 | 0.00 | 0.00 | 0.00 | 70 | 1013.7 |
| 20260504000501 | 11 | 268 | 0.0 | 1.6 | 0.00 | 0.00 | 0.00 | 71 | 1013.7 |
| 20260504000401 | 11 | 268 | 0.0 | 1.6 | 0.00 | 0.00 | 0.00 | 71 | 1013.7 |
| 20260504000301 | 11 | 268 | 0.0 | 1.6 | 0.00 | 0.00 | 0.00 | 70 | 1013.7 |
| 20260504000201 | 11 | 268 | 0.0 | 1.6 | 0.00 | 0.00 | 0.00 | 70 | 1013.6 |
| 20260504000100 | 11 | 269 | 0.0 | 1.6 | 0.00 | 0.00 | 0.00 | 70 | 1013.6 |
| 20260504000000 | 11 | 269 | 0.0 | 1.6 | 0.00 | 0.00 | 0.00 | 70 | 1013.6 |
| 20260503235903 | 11 | 269 | 0.0 | 1.6 | 0.00 | 0.00 | 0.00 | 70 | 1013.6 |
| 20260503235801 | 11 | 269 | 0.0 | 1.6 | 0.00 | 0.00 | 0.00 | 70 | 1013.6 |
| 20260503235701 | 11 | 269 | 0.0 | 1.6 | 0.00 | 0.00 | 0.00 | 69 | 1013.6 |
| 20260503235601 | 11 | 269 | 0.0 | 1.6 | 0.00 | 0.00 | 0.00 | 69 | 1013.6 |
| 20260503235501 | 11 | 269 | 0.0 | 1.6 | 0.00 | 0.00 | 0.00 | 69 | 1013.6 |
| 20260503235454 | 12 | 269 | 0.0 | 3.2 | 0.00 | 0.00 | 0.00 | 69 | 1013.5 |
| 20260503235448 | 12 | 269 | 0.0 | 3.2 | 0.00 | 0.00 | 0.00 | 69 | 1013.6 |
| 20260503235440 | 12 | 269 | 0.0 | 3.2 | 0.00 | 0.00 | 0.00 | 69 | 1013.6 |
| 20260503235200 | 12 | 269 | 0.0 | 3.2 | 0.00 | 0.00 | 0.00 | 69 | 1013.5 |
| 20260503235100 | 12 | 269 | 0.0 | 3.2 | 0.00 | 0.00 | 0.00 | 69 | 1013.6 |
| 20260503235000 | 12 | 269 | 0.0 | 3.2 | 0.00 | 0.00 | 0.00 | 69 | 1013.5 |
| 20260503234858 | 12 | 269 | 0.0 | 3.2 | 0.00 | 0.00 | 0.00 | 69 | 1013.5 |
| 20260503234730 | 12 | 269 | 0.0 | 3.2 | 0.00 | 0.00 | 0.00 | 69 | 1013.6 |
| 20260503234658 | 12 | 269 | 0.0 | 3.2 | 0.00 | 0.00 | 0.00 | 69 | 1013.6 |
| 20260503234558 | 12 | 269 | 0.0 | 3.2 | 0.00 | 0.00 | 0.00 | 69 | 1013.6 |
| 20260503234458 | 12 | 268 | 0.0 | 3.2 | 0.00 | 0.00 | 0.00 | 68 | 1013.6 |
| 20260503234354 | 12 | 268 | 0.0 | 1.6 | 0.00 | 0.00 | 0.00 | 68 | 1013.6 |
| 20260503234229 | 12 | 269 | 0.0 | 1.6 | 0.00 | 0.00 | 0.00 | 68 | 1013.6 |
| 20260503234153 | 12 | 269 | 0.0 | 1.6 | 0.00 | 0.00 | 0.00 | 68 | 1013.6 |
| 20260503234053 | 12 | 269 | 0.0 | 1.6 | 0.00 | 0.00 | 0.00 | 68 | 1013.5 |
| 20260503233951 | 12 | 269 | 0.0 | 1.6 | 0.00 | 0.00 | 0.00 | 68 | 1013.5 |
| 20260503233848 | 12 | 269 | 0.0 | 1.6 | 0.00 | 0.00 | 0.00 | 68 | 1013.5 |
| 20260503233728 | 12 | 269 | 0.0 | 1.6 | 0.00 | 0.00 | 0.00 | 67 | 1013.4 |
| 20260503233646 | 12 | 269 | 0.0 | 1.6 | 0.00 | 0.00 | 0.00 | 67 | 1013.4 |
| 20260503233546 | 12 | 269 | 0.0 | 3.2 | 0.00 | 0.00 | 0.00 | 67 | 1013.4 |
| 20260503233446 | 12 | 269 | 0.0 | 3.2 | 0.00 | 0.00 | 0.00 | 67 | 1013.4 |
| 20260503233346 | 12 | 269 | 1.6 | 3.2 | 0.00 | 0.00 | 0.00 | 67 | 1013.5 |
| 20260503233229 | 12 | 269 | 1.6 | 3.2 | 0.00 | 0.00 | 0.00 | 66 | 1013.5 |
| 20260503233222 | 12 | 269 | 1.6 | 4.8 | 0.00 | 0.00 | 0.00 | 66 | 1013.4 |
| 20260503233211 | 12 | 269 | 1.6 | 3.2 | 0.00 | 0.00 | 0.00 | 66 | 1013.5 |
| 20260503233207 | 12 | 269 | 1.6 | 3.2 | 0.00 | 0.00 | 0.00 | 66 | 1013.5 |
| 20260503232951 | 12 | 269 | 1.6 | 4.8 | 0.00 | 0.00 | 0.00 | 66 | 1013.5 |
| 20260503232943 | 12 | 269 | 1.6 | 4.8 | 0.00 | 0.00 | 0.00 | 66 | 1013.4 |
| 20260503232939 | 12 | 269 | 1.6 | 4.8 | 0.00 | 0.00 | 0.00 | 66 | 1013.4 |
| 20260503232634 | 12 | 269 | 1.6 | 4.8 | 0.00 | 0.00 | 0.00 | 66 | 1013.4 |
| 20260503232534 | 12 | 269 | 1.6 | 4.8 | 0.00 | 0.00 | 0.00 | 66 | 1013.4 |
| 20260503232434 | 12 | 269 | 1.6 | 4.8 | 0.00 | 0.00 | 0.00 | 66 | 1013.4 |
| 20260503232332 | 12 | 269 | 1.6 | 4.8 | 0.00 | 0.00 | 0.00 | 66 | 1013.3 |
| 20260503232228 | 12 | 269 | 1.6 | 4.8 | 0.00 | 0.00 | 0.00 | 66 | 1013.3 |